FW6030 Weather Reports


time (UTC)temp
F
wind
direction
speed
knots
gust
knots
rain 1hr
in
rain 24hr
in
rain mn
in
humidity
%
barometer
mb
20260901184420 96 360 3.5 11.3 0.00 0.00 0.00 49 1016.2
20260901184320 96 360 3.5 11.3 0.00 0.00 0.00 50 1016.3
20260901184221 96 360 5.2 11.3 0.00 0.00 0.00 50 1016.3
20260901184145 96 360 7.0 11.3 0.00 0.00 0.00 48 1016.4
20260901184025 96 360 7.0 11.3 0.00 0.00 0.00 49 1016.4
20260901183945 96 360 7.0 11.3 0.00 0.00 0.00 49 1016.4
20260901183825 96 360 7.0 11.3 0.00 0.00 0.00 49 1016.4
20260901183725 96 360 7.0 11.3 0.00 0.00 0.00 48 1016.4
20260901183626 97 360 4.3 10.4 0.00 0.00 0.00 48 1016.4
20260901183525 97 132 3.5 10.4 0.00 0.00 0.00 49 1016.4
20260901183426 96 360 2.6 10.4 0.00 0.00 0.00 49 1016.5
20260901183330 96 360 4.3 10.4 0.00 0.00 0.00 50 1016.6
20260901183231 96 360 4.3 10.4 0.00 0.00 0.00 50 1016.6
20260901183132 95 360 4.3 10.4 0.00 0.00 0.00 50 1016.6
20260901183032 95 360 3.5 10.4 0.00 0.00 0.00 50 1016.6
20260901182952 95 360 2.6 12.2 0.00 0.00 0.00 50 1016.6
20260901182833 95 360 3.5 12.2 0.00 0.00 0.00 53 1016.5
20260901182733 94 360 5.2 12.2 0.00 0.00 0.00 51 1016.6
20260901182617 94 360 6.1 12.2 0.00 0.00 0.00 51 1016.7
20260901182518 94 360 6.1 12.2 0.00 0.00 0.00 50 1016.6
20260901182438 95 360 6.1 12.2 0.00 0.00 0.00 51 1016.6
20260901182318 94 360 7.0 12.2 0.00 0.00 0.00 51 1016.6
20260901182219 94 98 6.1 12.2 0.00 0.00 0.00 51 1016.7
20260901182118 95 360 4.3 10.4 0.00 0.00 0.00 50 1016.6
20260901182020 95 360 3.5 9.6 0.00 0.00 0.00 51 1016.6
20260901181925 95 360 3.5 9.6 0.00 0.00 0.00 50 1016.6
20260901181825 95 360 5.2 9.6 0.00 0.00 0.00 50 1016.7
20260901181725 95 360 5.2 9.6 0.00 0.00 0.00 49 1016.8
20260901181626 96 360 4.3 10.4 0.00 0.00 0.00 48 1016.8
20260901181526 96 360 2.6 10.4 0.00 0.00 0.00 49 1016.8
20260901181427 96 360 2.6 10.4 0.00 0.00 0.00 50 1016.7
20260901181347 96 360 3.5 10.4 0.00 0.00 0.00 50 1016.8
20260901181231 95 360 4.3 10.4 0.00 0.00 0.00 50 1016.8
20260901181132 95 360 5.2 12.2 0.00 0.00 0.00 50 1016.8
20260901181032 95 360 5.2 12.2 0.00 0.00 0.00 50 1016.8
20260901180952 95 360 5.2 12.2 0.00 0.00 0.00 49 1016.8
20260901180852 95 360 5.2 12.2 0.00 0.00 0.00 49 1016.8
20260901180732 95 360 6.1 12.2 0.00 0.00 0.00 49 1016.9
20260901180632 95 360 6.1 10.4 0.00 0.00 0.00 48 1016.9
20260901180533 95 141 7.0 10.4 0.00 0.00 0.00 48 1016.9
20260901180417 96 360 5.2 9.6 0.00 0.00 0.00 48 1016.9
20260901180337 96 360 3.5 9.6 0.00 0.00 0.00 49 1016.9
20260901180216 96 360 2.6 9.6 0.00 0.00 0.00 48 1016.9
20260901180117 96 187 1.7 12.2 0.00 0.00 0.00 49 1017.0
20260901180018 95 360 2.6 13.0 0.00 0.00 0.00 50 1016.9
20260901175938 94 360 4.3 13.0 0.00 0.00 0.00 50 1017.0
20260901175839 94 360 5.2 13.0 0.00 0.00 0.00 49 1017.0
20260901175717 95 169 6.1 13.0 0.00 0.00 0.00 50 1017.1
20260901175621 94 360 6.1 13.0 0.00 0.00 0.00 51 1017.1
20260901175522 94 360 7.0 13.0 0.00 0.00 0.00 51 1017.1
20260901175422 94 360 7.8 13.0 0.00 0.00 0.00 51 1017.1
20260901175322 94 360 7.8 13.0 0.00 0.00 0.00 50 1017.2
20260901175223 94 360 7.0 13.0 0.00 0.00 0.00 50 1017.1
20260901175123 94 360 4.3 10.4 0.00 0.00 0.00 51 1017.1
20260901175028 94 360 3.5 9.6 0.00 0.00 0.00 51 1017.1
20260901174927 94 360 3.5 7.0 0.00 0.00 0.00 50 1017.1
20260901174828 95 84 3.5 7.0 0.00 0.00 0.00 50 1017.1
20260901174728 95 360 4.3 7.0 0.00 0.00 0.00 49 1017.2
20260901174628 95 101 3.5 10.4 0.00 0.00 0.00 49 1017.2
20260901174529 95 360 3.5 10.4 0.00 0.00 0.00 49 1017.2
20260901174430 96 360 3.5 10.4 0.00 0.00 0.00 49 1017.2
20260901174335 95 360 2.6 10.4 0.00 0.00 0.00 50 1017.2
20260901174255 95 360 2.6 10.4 0.00 0.00 0.00 49 1017.2
20260901174135 95 360 3.5 10.4 0.00 0.00 0.00 50 1017.2
20260901174035 95 360 3.5 10.4 0.00 0.00 0.00 49 1017.3
20260901173936 95 360 4.3 10.4 0.00 0.00 0.00 49 1017.3
20260901173835 95 360 3.5 10.4 0.00 0.00 0.00 50 1017.3
20260901173717 94 360 3.5 10.4 0.00 0.00 0.00 50 1017.3
20260901173622 94 360 3.5 10.4 0.00 0.00 0.00 51 1017.3
20260901173521 94 360 3.5 10.4 0.00 0.00 0.00 51 1017.4
20260901173421 94 81 4.3 10.4 0.00 0.00 0.00 50 1017.4
20260901173321 94 360 5.2 10.4 0.00 0.00 0.00 51 1017.4
20260901173222 94 360 6.1 10.4 0.00 0.00 0.00 50 1017.4
20260901173123 95 360 5.2 10.4 0.00 0.00 0.00 51 1017.4
20260901173024 95 360 4.3 10.4 0.00 0.00 0.00 51 1017.5
20260901172928 95 360 4.3 10.4 0.00 0.00 0.00 50 1017.4
20260901172832 95 360 3.5 9.6 0.00 0.00 0.00 52 1017.4
20260901172730 94 360 3.5 9.6 0.00 0.00 0.00 52 1017.5
20260901172631 94 360 4.3 9.6 0.00 0.00 0.00 52 1017.5
20260901172532 94 360 4.3 9.6 0.00 0.00 0.00 51 1017.4
20260901172434 94 360 4.3 9.6 0.00 0.00 0.00 51 1017.4
20260901172318 94 360 4.3 9.6 0.00 0.00 0.00 51 1017.4
20260901172220 94 360 3.5 9.6 0.00 0.00 0.00 51 1017.5
20260901172139 93 360 2.6 9.6 0.00 0.00 0.00 52 1017.5
20260901172019 94 360 1.7 9.6 0.00 0.00 0.00 52 1017.6
20260901171919 93 360 1.7 10.4 0.00 0.00 0.00 52 1017.5
20260901171818 93 360 2.6 10.4 0.00 0.00 0.00 53 1017.5
20260901171717 93 360 3.5 10.4 0.00 0.00 0.00 52 1017.6
20260901171622 93 360 3.5 10.4 0.00 0.00 0.00 52 1017.6
20260901171522 93 360 4.3 10.4 0.00 0.00 0.00 52 1017.5
20260901171423 92 360 4.3 10.4 0.00 0.00 0.00 52 1017.5
20260901171324 92 360 5.2 10.4 0.00 0.00 0.00 51 1017.5
20260901171225 92 360 7.0 10.4 0.00 0.00 0.00 52 1017.6
20260901171145 93 360 6.1 10.4 0.00 0.00 0.00 52 1017.6
20260901171025 93 360 6.1 10.4 0.00 0.00 0.00 52 1017.6
20260901170930 93 360 5.2 8.7 0.00 0.00 0.00 51 1017.6
20260901170830 93 360 4.3 8.7 0.00 0.00 0.00 51 1017.6
20260901170730 93 360 3.5 8.7 0.00 0.00 0.00 51 1017.7
20260901170630 93 360 3.5 8.7 0.00 0.00 0.00 51 1017.6
20260901170530 93 360 4.3 8.7 0.00 0.00 0.00 51 1017.6
20260901170430 93 360 5.2 8.7 0.00 0.00 0.00 51 1017.6
20260901170331 94 360 4.3 8.7 0.00 0.00 0.00 50 1017.6
20260901170251 95 360 2.6 8.7 0.00 0.00 0.00 49 1017.6
20260901170135 95 360 1.7 5.2 0.00 0.00 0.00 48 1017.6
20260901170031 95 360 1.7 4.3 0.00 0.00 0.00 50 1017.7
20260901165951 95 360 1.7 4.3 0.00 0.00 0.00 53 1017.7
20260901165832 96 360 1.7 4.3 0.00 0.00 0.00 53 1017.8
20260901165731 96 360 1.7 4.3 0.00 0.00 0.00 53 1017.8
20260901165632 95 360 1.7 4.3 0.00 0.00 0.00 54 1017.7
20260901165533 95 360 1.7 4.3 0.00 0.00 0.00 54 1017.7
20260901165417 93 360 2.6 4.3 0.00 0.00 0.00 55 1017.8
20260901165318 93 360 2.6 4.3 0.00 0.00 0.00 56 1017.9
20260901165218 93 360 2.6 4.3 0.00 0.00 0.00 56 1017.9
20260901165119 93 86 2.6 4.3 0.00 0.00 0.00 55 1017.9
20260901165020 94 85 2.6 4.3 0.00 0.00 0.00 55 1017.8
20260901164921 95 360 2.6 5.2 0.00 0.00 0.00 55 1017.9
20260901164841 94 360 1.7 5.2 0.00 0.00 0.00 57 1017.9
20260901164724 94 360 1.7 5.2 0.00 0.00 0.00 57 1017.9
20260901164625 93 62 1.7 7.8 0.00 0.00 0.00 57 1018.0
20260901164526 93 360 1.7 7.8 0.00 0.00 0.00 57 1017.9
20260901164427 93 360 1.7 7.8 0.00 0.00 0.00 57 1017.9
20260901164327 93 360 1.7 7.8 0.00 0.00 0.00 57 1017.9
20260901164227 92 360 2.6 10.4 0.00 0.00 0.00 57 1017.9
20260901164132 93 360 3.5 10.4 0.00 0.00 0.00 60 1017.9
20260901164033 92 360 3.5 10.4 0.00 0.00 0.00 59 1017.8
20260901163933 93 360 3.5 10.4 0.00 0.00 0.00 59 1017.8
20260901163834 93 360 3.5 10.4 0.00 0.00 0.00 59 1017.8
20260901163734 93 360 2.6 10.4 0.00 0.00 0.00 59 1017.9
20260901163635 92 360 2.6 10.4 0.00 0.00 0.00 59 1017.8
20260901163516 93 360 4.3 10.4 0.00 0.00 0.00 59 1017.9
20260901163421 93 142 5.2 10.4 0.00 0.00 0.00 59 1017.8
20260901163322 93 360 4.3 10.4 0.00 0.00 0.00 58 1017.9
20260901163222 94 360 2.6 10.4 0.00 0.00 0.00 58 1017.7
20260901163120 94 360 1.7 4.3 0.00 0.00 0.00 58 1017.8
20260901163020 94 360 0.9 4.3 0.00 0.00 0.00 59 1017.9
20260901162921 93 360 1.7 4.3 0.00 0.00 0.00 58 1018.0
20260901162827 94 360 1.7 4.3 0.00 0.00 0.00 58 1017.9
20260901162727 94 360 1.7 4.3 0.00 0.00 0.00 57 1017.9
20260901162628 94 360 0.9 4.3 0.00 0.00 0.00 57 1018.0
20260901162549 94 360 0.9 4.3 0.00 0.00 0.00 59 1018.0
20260901162429 93 360 1.7 5.2 0.00 0.00 0.00 59 1018.0
20260901162349 93 360 1.7 5.2 0.00 0.00 0.00 59 1018.1
20260901162228 92 360 1.7 5.2 0.00 0.00 0.00 60 1018.0
20260901162129 92 74 2.6 5.2 0.00 0.00 0.00 60 1018.1
20260901162034 92 360 3.5 5.2 0.00 0.00 0.00 58 1018.1
20260901161935 93 360 3.5 5.2 0.00 0.00 0.00 57 1018.1
20260901161835 94 360 2.6 5.2 0.00 0.00 0.00 58 1018.2
20260901161735 94 360 1.7 5.2 0.00 0.00 0.00 58 1018.2
20260901161636 94 360 0.9 4.3 0.00 0.00 0.00 59 1018.1
20260901161556 93 290 0.9 4.3 0.00 0.00 0.00 60 1018.2
20260901161420 92 360 1.7 4.3 0.00 0.00 0.00 60 1018.1
20260901161340 92 360 2.6 4.3 0.00 0.00 0.00 58 1018.2
20260901161220 93 360 2.6 4.3 0.00 0.00 0.00 58 1018.1
20260901161121 94 360 2.6 4.3 0.00 0.00 0.00 58 1018.1
20260901161022 94 360 2.6 4.3 0.00 0.00 0.00 57 1018.2
20260901160943 94 360 1.7 4.3 0.00 0.00 0.00 57 1018.2
20260901160822 94 360 1.7 4.3 0.00 0.00 0.00 57 1018.2
20260901160724 94 360 0.9 4.3 0.00 0.00 0.00 58 1018.1
20260901160628 94 360 0.9 4.3 0.00 0.00 0.00 58 1018.2
20260901160529 94 360 0.9 4.3 0.00 0.00 0.00 58 1018.2
20260901160429 93 360 0.9 4.3 0.00 0.00 0.00 58 1018.2
20260901160330 93 360 0.9 4.3 0.00 0.00 0.00 58 1018.2
20260901160252 93 360 1.7 4.3 0.00 0.00 0.00 60 1018.1
20260901160131 92 360 1.7 4.3 0.00 0.00 0.00 60 1018.2
20260901160016 92 350 1.7 4.3 0.00 0.00 0.00 60 1018.2
20260901155916 92 360 1.7 2.6 0.00 0.00 0.00 60 1018.2
20260901155818 91 360 1.7 3.5 0.00 0.00 0.00 60 1018.2
20260901155717 92 360 1.7 3.5 0.00 0.00 0.00 59 1018.2
20260901155617 92 60 1.7 5.2 0.00 0.00 0.00 58 1018.2
20260901155517 92 360 1.7 5.2 0.00 0.00 0.00 59 1018.2
20260901155418 93 360 1.7 5.2 0.00 0.00 0.00 59 1018.2
20260901155324 93 360 0.9 5.2 0.00 0.00 0.00 60 1018.2
20260901155223 92 360 1.7 5.2 0.00 0.00 0.00 61 1018.1
20260901155124 92 360 1.7 5.2 0.00 0.00 0.00 61 1018.2
20260901155025 91 32 2.6 5.2 0.00 0.00 0.00 61 1018.2
20260901154945 91 30 2.6 5.2 0.00 0.00 0.00 61 1018.1
20260901154825 91 360 2.6 5.2 0.00 0.00 0.00 61 1018.2
20260901154724 91 34 1.7 5.2 0.00 0.00 0.00 61 1018.2
20260901154625 91 360 1.7 5.2 0.00 0.00 0.00 61 1018.2
20260901154530 92 360 2.6 5.2 0.00 0.00 0.00 61 1018.2
20260901154431 91 360 3.5 5.2 0.00 0.00 0.00 61 1018.2
20260901154331 91 360 2.6 4.3 0.00 0.00 0.00 61 1018.1
20260901154232 92 360 2.6 4.3 0.00 0.00 0.00 61 1018.2
20260901154133 92 339 1.7 4.3 0.00 0.00 0.00 62 1018.1
20260901154034 92 360 1.7 4.3 0.00 0.00 0.00 61 1018.1
20260901153939 92 360 2.6 4.3 0.00 0.00 0.00 61 1018.1
20260901153820 92 61 1.7 4.3 0.00 0.00 0.00 61 1018.2
20260901153721 92 360 1.7 3.5 0.00 0.00 0.00 61 1018.1
20260901153622 93 360 1.7 3.5 0.00 0.00 0.00 62 1018.1
20260901153522 92 360 1.7 3.5 0.00 0.00 0.00 62 1018.1
20260901153423 92 360 1.7 3.5 0.00 0.00 0.00 62 1018.1
20260901153343 92 78 0.9 3.5 0.00 0.00 0.00 61 1018.1
20260901153243 93 360 0.9 3.5 0.00 0.00 0.00 62 1018.1
20260901153127 93 360 0.0 3.5 0.00 0.00 0.00 62 1018.1
20260901153025 92 360 0.0 4.3 0.00 0.00 0.00 62 1018.1
20260901152946 92 360 0.0 7.0 0.00 0.00 0.00 63 1018.1
20260901152847 91 360 0.0 7.0 0.00 0.00 0.00 63 1018.1
20260901152727 91 360 0.9 7.0 0.00 0.00 0.00 62 1018.1
20260901152627 91 360 1.7 7.0 0.00 0.00 0.00 62 1018.1
20260901152528 92 360 1.7 7.0 0.00 0.00 0.00 60 1018.1
20260901152427 93 360 2.6 7.0 0.00 0.00 0.00 60 1018.1
20260901152327 93 360 2.6 7.0 0.00 0.00 0.00 59 1018.0
20260901152232 94 360 2.6 7.0 0.00 0.00 0.00 59 1018.0
20260901152133 94 360 2.6 7.0 0.00 0.00 0.00 58 1018.1
20260901152033 95 360 1.7 5.2 0.00 0.00 0.00 59 1018.1
20260901151933 95 360 0.9 2.6 0.00 0.00 0.00 59 1018.0
20260901151833 94 360 0.9 2.6 0.00 0.00 0.00 60 1018.1
20260901151734 94 360 1.7 2.6 0.00 0.00 0.00 61 1018.1
20260901151638 93 360 0.9 2.6 0.00 0.00 0.00 62 1018.1
20260901151517 93 360 1.7 2.6 0.00 0.00 0.00 62 1018.1
20260901151418 92 360 0.9 2.6 0.00 0.00 0.00 63 1018.2
20260901151318 92 225 0.9 2.6 0.00 0.00 0.00 64 1018.1
20260901151219 91 360 0.9 3.5 0.00 0.00 0.00 66 1018.2
20260901151119 91 117 0.9 3.5 0.00 0.00 0.00 66 1018.1
20260901151019 90 117 0.9 3.5 0.00 0.00 0.00 65 1018.1
20260901150925 90 360 0.9 3.5 0.00 0.00 0.00 67 1018.1
20260901150826 90 360 0.0 3.5 0.00 0.00 0.00 67 1018.1
20260901150727 89 360 0.9 5.2 0.00 0.00 0.00 67 1018.1
20260901150627 89 360 0.9 5.2 0.00 0.00 0.00 68 1018.1
20260901150527 89 360 1.7 5.2 0.00 0.00 0.00 68 1018.2
20260901150428 88 360 1.7 5.2 0.00 0.00 0.00 68 1018.1
20260901150350 88 360 1.7 5.2 0.00 0.00 0.00 68 1018.2
20260901150232 88 360 1.7 5.2 0.00 0.00 0.00 69 1018.2
20260901150131 88 360 1.7 5.2 0.00 0.00 0.00 70 1018.2
20260901150031 87 360 2.6 5.2 0.00 0.00 0.00 70 1018.1
20260901145932 87 360 3.5 5.2 0.00 0.00 0.00 69 1018.2
20260901145853 87 360 3.5 5.2 0.00 0.00 0.00 68 1018.1
20260901145732 88 360 2.6 5.2 0.00 0.00 0.00 68 1018.2
20260901145633 88 360 1.7 4.3 0.00 0.00 0.00 68 1018.3
20260901145517 88 142 1.7 4.3 0.00 0.00 0.00 68 1018.2
20260901145418 89 360 1.7 4.3 0.00 0.00 0.00 66 1018.2
20260901145319 89 360 1.7 4.3 0.00 0.00 0.00 66 1018.2
20260901145239 90 143 1.7 4.3 0.00 0.00 0.00 65 1018.2
20260901145119 90 144 0.9 4.3 0.00 0.00 0.00 65 1018.2
20260901145019 91 360 0.0 2.6 0.00 0.00 0.00 65 1018.2
20260901144920 90 360 0.0 2.6 0.00 0.00 0.00 66 1018.2
20260901144824 90 360 0.0 2.6 0.00 0.00 0.00 66 1018.2
20260901144725 90 360 0.9 2.6 0.00 0.00 0.00 66 1018.3
20260901144645 90 360 0.9 2.6 0.00 0.00 0.00 67 1018.2
20260901144544 89 360 0.9 2.6 0.00 0.00 0.00 67 1018.3
20260901144424 89 360 0.9 2.6 0.00 0.00 0.00 66 1018.2
20260901144324 90 360 0.9 3.5 0.00 0.00 0.00 65 1018.2
20260901144225 90 360 0.9 4.3 0.00 0.00 0.00 66 1018.2
20260901144129 90 360 1.7 4.3 0.00 0.00 0.00 67 1018.2
20260901144029 89 360 0.9 4.3 0.00 0.00 0.00 67 1018.3
20260901143929 89 360 0.9 4.3 0.00 0.00 0.00 67 1018.3
20260901143830 89 360 0.9 4.3 0.00 0.00 0.00 66 1018.2
20260901143752 90 360 1.7 4.3 0.00 0.00 0.00 65 1018.2
20260901143631 90 360 1.7 4.3 0.00 0.00 0.00 65 1018.3
20260901143532 90 360 2.6 5.2 0.00 0.00 0.00 65 1018.2
20260901143416 91 360 2.6 5.2 0.00 0.00 0.00 64 1018.3
20260901143316 92 360 1.7 5.2 0.00 0.00 0.00 64 1018.2
20260901143216 92 360 1.7 5.2 0.00 0.00 0.00 65 1018.2
20260901143116 92 284 1.7 5.2 0.00 0.00 0.00 65 1018.2
20260901143017 91 275 1.7 5.2 0.00 0.00 0.00 66 1018.3
20260901142916 91 360 2.6 5.2 0.00 0.00 0.00 66 1018.2
20260901142823 91 360 2.6 5.2 0.00 0.00 0.00 67 1018.2
20260901142723 90 360 2.6 4.3 0.00 0.00 0.00 67 1018.2
20260901142623 90 360 1.7 3.5 0.00 0.00 0.00 67 1018.2
20260901142523 90 360 1.7 3.5 0.00 0.00 0.00 67 1018.2
20260901142424 90 258 1.7 3.5 0.00 0.00 0.00 68 1018.3
20260901142326 90 302 1.7 4.3 0.00 0.00 0.00 67 1018.3
20260901142227 90 360 0.9 4.3 0.00 0.00 0.00 68 1018.2
20260901142132 90 360 0.9 4.3 0.00 0.00 0.00 69 1018.3
20260901142032 89 360 0.9 4.3 0.00 0.00 0.00 69 1018.3
20260901141932 89 360 1.7 4.3 0.00 0.00 0.00 69 1018.3
20260901141832 89 268 2.6 4.3 0.00 0.00 0.00 70 1018.3
20260901141733 88 269 2.6 4.3 0.00 0.00 0.00 70 1018.3
20260901141634 88 360 1.7 4.3 0.00 0.00 0.00 70 1018.3
20260901141554 88 360 1.7 4.3 0.00 0.00 0.00 70 1018.3
20260901141437 88 360 0.9 4.3 0.00 0.00 0.00 70 1018.3
20260901141317 88 360 1.7 4.3 0.00 0.00 0.00 71 1018.3
20260901141217 88 360 1.7 5.2 0.00 0.00 0.00 72 1018.4
20260901141118 88 360 1.7 5.2 0.00 0.00 0.00 72 1018.4
20260901141018 87 360 1.7 5.2 0.00 0.00 0.00 72 1018.4
20260901140918 87 360 1.7 5.2 0.00 0.00 0.00 72 1018.4
20260901140819 87 317 1.7 5.2 0.00 0.00 0.00 72 1018.4
20260901140724 87 325 2.6 5.2 0.00 0.00 0.00 72 1018.3
20260901140625 87 325 2.6 5.2 0.00 0.00 0.00 72 1018.4
20260901140526 87 323 2.6 5.2 0.00 0.00 0.00 73 1018.4
20260901140426 87 313 1.7 5.2 0.00 0.00 0.00 73 1018.4
20260901140327 87 360 1.7 5.2 0.00 0.00 0.00 73 1018.4
20260901140248 86 360 2.6 5.2 0.00 0.00 0.00 73 1018.4
20260901140127 86 360 2.6 5.2 0.00 0.00 0.00 73 1018.4
20260901140032 86 329 2.6 5.2 0.00 0.00 0.00 73 1018.4
20260901135933 87 360 1.7 5.2 0.00 0.00 0.00 73 1018.4
20260901135835 86 304 1.7 5.2 0.00 0.00 0.00 73 1018.4
20260901135733 87 308 1.7 5.2 0.00 0.00 0.00 73 1018.5
20260901135633 86 360 0.9 4.3 0.00 0.00 0.00 73 1018.5
20260901135533 86 304 1.7 3.5 0.00 0.00 0.00 73 1018.5
20260901135418 86 360 1.7 3.5 0.00 0.00 0.00 75 1018.4
20260901135318 86 360 1.7 3.5 0.00 0.00 0.00 75 1018.4
20260901135218 86 360 1.7 3.5 0.00 0.00 0.00 75 1018.4
20260901135138 85 309 1.7 3.5 0.00 0.00 0.00 76 1018.5
20260901135018 85 309 1.7 3.5 0.00 0.00 0.00 76 1018.4
20260901134917 85 311 1.7 3.5 0.00 0.00 0.00 76 1018.5
20260901134819 84 315 1.7 2.6 0.00 0.00 0.00 76 1018.4
20260901134723 85 360 1.7 2.6 0.00 0.00 0.00 76 1018.4
20260901134624 85 315 1.7 2.6 0.00 0.00 0.00 76 1018.4
20260901134524 85 316 1.7 2.6 0.00 0.00 0.00 76 1018.3
20260901134425 85 315 0.9 2.6 0.00 0.00 0.00 76 1018.3
20260901134345 84 315 0.9 1.7 0.00 0.00 0.00 77 1018.3
20260901134224 84 315 0.9 1.7 0.00 0.00 0.00 77 1018.2
20260901134123 84 360 0.9 1.7 0.00 0.00 0.00 78 1018.3
20260901134024 84 315 0.9 1.7 0.00 0.00 0.00 78 1018.3
20260901133929 83 315 0.9 1.7 0.00 0.00 0.00 79 1018.2
20260901133830 83 360 0.0 1.7 0.00 0.00 0.00 79 1018.2
20260901133749 83 360 0.0 1.7 0.00 0.00 0.00 80 1018.3
20260901133629 83 316 0.9 2.6 0.00 0.00 0.00 80 1018.1
20260901133530 82 315 0.9 2.6 0.00 0.00 0.00 80 1018.1
20260901133450 82 316 0.9 2.6 0.00 0.00 0.00 81 1018.1
20260901133329 82 316 0.9 2.6 0.00 0.00 0.00 81 1018.1
20260901133235 81 316 0.9 2.6 0.00 0.00 0.00 81 1018.2
20260901133134 81 317 0.9 2.6 0.00 0.00 0.00 81 1018.1
20260901133035 81 317 1.7 2.6 0.00 0.00 0.00 82 1018.1
20260901132935 81 316 1.7 2.6 0.00 0.00 0.00 82 1018.1
20260901132837 81 317 1.7 2.6 0.00 0.00 0.00 82 1018.1
20260901132735 81 313 1.7 2.6 0.00 0.00 0.00 82 1018.1
20260901132656 81 314 0.9 2.6 0.00 0.00 0.00 82 1018.1
20260901132520 80 315 1.7 2.6 0.00 0.00 0.00 82 1018.1
20260901132421 80 315 1.7 2.6 0.00 0.00 0.00 83 1018.0
20260901132322 80 315 1.7 2.6 0.00 0.00 0.00 83 1018.0
20260901132221 80 309 1.7 2.6 0.00 0.00 0.00 84 1018.1
20260901132122 80 309 0.9 2.6 0.00 0.00 0.00 84 1018.0
20260901132023 80 309 1.7 2.6 0.00 0.00 0.00 84 1018.0
20260901131923 79 309 1.7 2.6 0.00 0.00 0.00 84 1018.0
20260901131849 79 309 0.9 2.6 0.00 0.00 0.00 84 1018.0
20260901131727 79 360 1.7 2.6 0.00 0.00 0.00 84 1018.0
20260901131628 79 307 0.9 2.6 0.00 0.00 0.00 84 1018.0
20260901131530 79 308 0.9 2.6 0.00 0.00 0.00 84 1018.0
20260901131430 79 308 0.0 2.6 0.00 0.00 0.00 84 1017.9
20260901131330 79 308 0.9 2.6 0.00 0.00 0.00 85 1018.0
20260901131231 79 360 0.9 2.6 0.00 0.00 0.00 85 1017.9
20260901131155 79 309 0.9 3.5 0.00 0.00 0.00 85 1017.9
20260901131055 79 309 0.9 3.5 0.00 0.00 0.00 85 1017.9
20260901130935 79 360 0.9 3.5 0.00 0.00 0.00 85 1017.9
20260901130836 78 306 0.9 3.5 0.00 0.00 0.00 85 1017.9
20260901130735 79 306 1.7 3.5 0.00 0.00 0.00 85 1017.9
20260901130636 78 306 1.7 3.5 0.00 0.00 0.00 85 1017.8
20260901130535 78 306 1.7 3.5 0.00 0.00 0.00 86 1017.9
20260901130435 78 304 1.7 3.5 0.00 0.00 0.00 86 1017.9
20260901130320 78 304 1.7 3.5 0.00 0.00 0.00 86 1017.8
20260901130219 78 360 1.7 2.6 0.00 0.00 0.00 86 1017.8
20260901130120 78 360 1.7 2.6 0.00 0.00 0.00 86 1017.7
20260901130021 78 360 1.7 2.6 0.00 0.00 0.00 86 1017.8
20260901125942 78 360 1.7 2.6 0.00 0.00 0.00 86 1017.8
20260901125823 78 360 1.7 2.6 0.00 0.00 0.00 86 1017.8
20260901125722 78 360 1.7 2.6 0.00 0.00 0.00 86 1017.9
20260901125627 78 360 1.7 2.6 0.00 0.00 0.00 87 1017.8
20260901125527 78 360 1.7 2.6 0.00 0.00 0.00 86 1017.7
20260901125427 77 360 0.9 1.7 0.00 0.00 0.00 87 1017.7
20260901125328 77 360 0.9 1.7 0.00 0.00 0.00 87 1017.7
20260901125228 77 360 1.7 1.7 0.00 0.00 0.00 87 1017.8
20260901125149 77 360 0.9 1.7 0.00 0.00 0.00 87 1017.7
20260901125028 77 360 0.9 1.7 0.00 0.00 0.00 87 1017.7
20260901124933 77 360 0.9 1.7 0.00 0.00 0.00 87 1017.7
20260901124834 77 360 0.9 1.7 0.00 0.00 0.00 87 1017.7
20260901124734 77 360 0.9 1.7 0.00 0.00 0.00 87 1017.7
20260901124635 77 360 0.9 1.7 0.00 0.00 0.00 87 1017.6
20260901124535 77 360 0.9 1.7 0.00 0.00 0.00 88 1017.7
20260901124416 76 360 0.9 1.7 0.00 0.00 0.00 88 1017.6
20260901124321 76 360 0.9 1.7 0.00 0.00 0.00 88 1017.5
20260901124222 76 360 0.9 1.7 0.00 0.00 0.00 88 1017.6
20260901124122 76 360 0.0 1.7 0.00 0.00 0.00 88 1017.6
20260901124023 76 360 0.0 0.0 0.00 0.00 0.00 88 1017.6
20260901123923 76 360 0.0 0.0 0.00 0.00 0.00 88 1017.6
20260901123823 76 360 0.0 0.0 0.00 0.00 0.00 88 1017.5
20260901123728 76 360 0.0 0.0 0.00 0.00 0.00 88 1017.5
20260901123628 76 360 0.0 0.0 0.00 0.00 0.00 88 1017.5
20260901123529 76 360 0.0 0.0 0.00 0.00 0.00 88 1017.5
20260901123429 76 360 0.0 0.0 0.00 0.00 0.00 88 1017.5
20260901123329 76 360 0.0 0.0 0.00 0.00 0.00 88 1017.5
20260901123229 76 360 0.0 0.0 0.00 0.00 0.00 88 1017.5
20260901123130 76 360 0.0 0.0 0.00 0.00 0.00 88 1017.5
20260901123034 76 360 0.0 0.0 0.00 0.00 0.00 87 1017.5
20260901122934 76 360 0.0 0.0 0.00 0.00 0.00 87 1017.4
20260901122817 76 360 0.0 0.0 0.00 0.00 0.00 87 1017.5
20260901122717 76 360 0.0 0.0 0.00 0.00 0.00 87 1017.4
20260901122617 75 360 0.0 0.0 0.00 0.00 0.00 87 1017.4
20260901122518 75 360 0.0 0.0 0.00 0.00 0.00 87 1017.4
20260901122439 76 360 0.0 0.0 0.00 0.00 0.00 87 1017.4
20260901122322 75 360 0.0 0.9 0.00 0.00 0.00 87 1017.4
20260901122223 75 360 0.0 0.9 0.00 0.00 0.00 87 1017.4
20260901122124 76 360 0.0 0.9 0.00 0.00 0.00 87 1017.4
20260901122024 76 360 0.0 0.9 0.00 0.00 0.00 87 1017.4
20260901121925 76 360 0.0 0.9 0.00 0.00 0.00 87 1017.4
20260901121824 76 360 0.0 1.7 0.00 0.00 0.00 87 1017.4
20260901121745 76 360 0.0 1.7 0.00 0.00 0.00 87 1017.4
20260901121625 76 360 0.0 1.7 0.00 0.00 0.00 87 1017.3
20260901121529 76 360 0.0 1.7 0.00 0.00 0.00 87 1017.4
20260901121450 76 360 0.0 1.7 0.00 0.00 0.00 87 1017.3
20260901121330 76 360 0.0 1.7 0.00 0.00 0.00 87 1017.4
20260901121231 76 360 0.0 1.7 0.00 0.00 0.00 87 1017.3
20260901121131 76 360 0.0 1.7 0.00 0.00 0.00 87 1017.4
20260901121031 76 360 0.0 1.7 0.00 0.00 0.00 87 1017.4
20260901120916 76 360 0.0 1.7 0.00 0.00 0.00 87 1017.4
20260901120816 76 360 0.0 0.9 0.00 0.00 0.00 87 1017.3
20260901120717 76 360 0.0 0.0 0.00 0.00 0.00 87 1017.4
20260901120617 76 360 0.0 0.0 0.00 0.00 0.00 87 1017.4
20260901120518 76 360 0.0 0.0 0.00 0.00 0.00 87 1017.4
20260901120438 76 360 0.0 0.0 0.00 0.00 0.00 87 1017.4
20260901120319 76 360 0.0 0.0 0.00 0.00 0.00 87 1017.4
20260901120224 76 360 0.0 0.0 0.00 0.00 0.00 87 1017.4
20260901120124 76 360 0.0 1.7 0.00 0.00 0.00 87 1017.4
20260901120044 76 360 0.0 1.7 0.00 0.00 0.00 87 1017.3
20260901115923 76 360 0.0 1.7 0.00 0.00 0.00 87 1017.4
20260901115846 76 360 0.0 1.7 0.00 0.00 0.00 87 1017.4
20260901115744 76 360 0.0 1.7 0.00 0.00 0.00 87 1017.4
20260901115624 76 360 0.0 1.7 0.00 0.00 0.00 87 1017.4
20260901115525 76 360 0.0 1.7 0.00 0.00 0.00 86 1017.4
20260901115429 76 360 0.9 1.7 0.00 0.00 0.00 86 1017.4
20260901115330 76 360 0.9 1.7 0.00 0.00 0.00 86 1017.4
20260901115250 76 360 0.9 1.7 0.00 0.00 0.00 86 1017.4
20260901115130 76 360 0.9 1.7 0.00 0.00 0.00 86 1017.4
20260901115030 76 360 0.9 1.7 0.00 0.00 0.00 86 1017.4
20260901114930 76 360 0.9 1.7 0.00 0.00 0.00 86 1017.4
20260901114831 76 360 0.9 1.7 0.00 0.00 0.00 86 1017.5
20260901114735 76 360 0.9 1.7 0.00 0.00 0.00 86 1017.4
20260901114635 76 360 0.9 1.7 0.00 0.00 0.00 86 1017.4
20260901114516 76 360 0.9 1.7 0.00 0.00 0.00 86 1017.4
20260901114417 76 360 1.7 1.7 0.00 0.00 0.00 86 1017.4
20260901114317 76 360 1.7 1.7 0.00 0.00 0.00 86 1017.4
20260901114217 76 360 1.7 1.7 0.00 0.00 0.00 86 1017.3
20260901114122 76 360 0.9 1.7 0.00 0.00 0.00 86 1017.4
20260901114023 76 360 0.9 1.7 0.00 0.00 0.00 86 1017.3
20260901113924 76 360 0.9 1.7 0.00 0.00 0.00 86 1017.4
20260901113825 76 360 0.9 1.7 0.00 0.00 0.00 86 1017.3
20260901113726 76 360 0.9 1.7 0.00 0.00 0.00 86 1017.3
20260901113627 76 360 0.9 1.7 0.00 0.00 0.00 86 1017.3
20260901113529 76 360 0.9 1.7 0.00 0.00 0.00 86 1017.3
20260901113454 76 360 0.9 1.7 0.00 0.00 0.00 86 1017.3
20260901113353 76 360 0.9 1.7 0.00 0.00 0.00 86 1017.3
20260901113252 76 360 0.9 1.7 0.00 0.00 0.00 87 1017.3
20260901113132 76 360 0.9 1.7 0.00 0.00 0.00 86 1017.3
20260901113032 76 360 0.9 1.7 0.00 0.00 0.00 86 1017.2
20260901112932 76 360 0.9 1.7 0.00 0.00 0.00 86 1017.3
20260901112853 76 360 0.9 1.7 0.00 0.00 0.00 86 1017.3
20260901112732 76 360 1.7 1.7 0.00 0.00 0.00 86 1017.2
20260901112637 76 360 1.7 1.7 0.00 0.00 0.00 86 1017.3
20260901112517 76 360 1.7 1.7 0.00 0.00 0.00 86 1017.3
20260901112417 77 360 0.9 1.7 0.00 0.00 0.00 86 1017.2
20260901112317 77 360 0.9 1.7 0.00 0.00 0.00 86 1017.2
20260901112239 77 360 0.0 1.7 0.00 0.00 0.00 86 1017.2
20260901112118 77 360 0.0 1.7 0.00 0.00 0.00 86 1017.1
20260901112019 77 360 0.0 1.7 0.00 0.00 0.00 86 1017.3
20260901111940 77 360 0.0 1.7 0.00 0.00 0.00 86 1017.2
20260901111823 77 360 0.9 1.7 0.00 0.00 0.00 86 1017.1
20260901111744 77 360 0.9 1.7 0.00 0.00 0.00 86 1017.2
20260901111623 77 360 0.9 1.7 0.00 0.00 0.00 86 1017.2
20260901111544 77 360 0.9 1.7 0.00 0.00 0.00 86 1017.2
20260901111443 77 360 0.9 1.7 0.00 0.00 0.00 86 1017.2
20260901111323 77 360 0.0 1.7 0.00 0.00 0.00 86 1017.2
20260901111224 77 360 0.0 1.7 0.00 0.00 0.00 86 1017.2
20260901111144 77 360 0.0 1.7 0.00 0.00 0.00 86 1017.2
20260901111044 77 360 0.0 1.7 0.00 0.00 0.00 86 1017.2
20260901110927 77 360 0.0 1.7 0.00 0.00 0.00 86 1017.2
20260901110827 77 360 0.0 1.7 0.00 0.00 0.00 86 1017.2
20260901110728 77 360 0.9 1.7 0.00 0.00 0.00 86 1017.2
20260901110629 77 360 0.0 1.7 0.00 0.00 0.00 86 1017.2
20260901110529 77 360 0.0 1.7 0.00 0.00 0.00 86 1017.2
20260901110429 77 360 0.0 1.7 0.00 0.00 0.00 86 1017.2
20260901110350 77 360 0.0 1.7 0.00 0.00 0.00 86 1017.1
20260901110233 77 360 0.0 1.7 0.00 0.00 0.00 86 1017.1
20260901110133 77 360 0.0 1.7 0.00 0.00 0.00 86 1017.1
20260901110054 77 360 0.0 1.7 0.00 0.00 0.00 86 1017.1
20260901105933 77 360 0.9 1.7 0.00 0.00 0.00 86 1017.1
20260901105836 77 360 0.9 1.7 0.00 0.00 0.00 86 1017.1
20260901105735 77 360 0.9 1.7 0.00 0.00 0.00 86 1017.1
20260901105618 77 360 0.9 2.6 0.00 0.00 0.00 86 1017.1
20260901105519 77 360 0.9 4.3 0.00 0.00 0.00 86 1017.1
20260901105419 77 360 0.9 4.3 0.00 0.00 0.00 86 1017.0
20260901105320 77 360 0.0 4.3 0.00 0.00 0.00 86 1017.0
20260901105221 77 360 0.0 4.3 0.00 0.00 0.00 86 1017.1
20260901105122 77 360 0.0 4.3 0.00 0.00 0.00 86 1017.1
20260901105023 77 360 0.9 4.3 0.00 0.00 0.00 86 1017.1
20260901104928 77 360 0.9 4.3 0.00 0.00 0.00 86 1017.1
20260901104828 77 360 1.7 4.3 0.00 0.00 0.00 86 1017.1
20260901104729 77 360 1.7 4.3 0.00 0.00 0.00 86 1017.1
20260901104629 77 360 1.7 4.3 0.00 0.00 0.00 86 1017.1
20260901104531 77 360 1.7 4.3 0.00 0.00 0.00 86 1017.1
20260901104431 77 360 1.7 4.3 0.00 0.00 0.00 86 1017.0
20260901104332 77 360 1.7 4.3 0.00 0.00 0.00 86 1017.0
20260901104235 77 360 1.7 4.3 0.00 0.00 0.00 86 1017.0
20260901104116 77 360 1.7 4.3 0.00 0.00 0.00 86 1017.0
20260901104017 77 360 1.7 3.5 0.00 0.00 0.00 86 1017.1
20260901103918 77 360 1.7 3.5 0.00 0.00 0.00 86 1017.1
20260901103818 77 360 1.7 3.5 0.00 0.00 0.00 86 1017.1
20260901103719 77 360 1.7 3.5 0.00 0.00 0.00 86 1017.1
20260901103625 77 360 1.7 3.5 0.00 0.00 0.00 86 1017.0
20260901103525 77 360 1.7 3.5 0.00 0.00 0.00 86 1017.1
20260901103425 77 360 1.7 3.5 0.00 0.00 0.00 86 1017.1
20260901103326 77 360 1.7 4.3 0.00 0.00 0.00 86 1016.9
20260901103226 77 360 0.9 4.3 0.00 0.00 0.00 86 1017.0
20260901103127 77 360 0.9 4.3 0.00 0.00 0.00 86 1017.0
20260901103027 77 360 0.9 4.3 0.00 0.00 0.00 86 1017.0
20260901102932 77 360 0.9 4.3 0.00 0.00 0.00 85 1017.0
20260901102834 77 360 0.9 4.3 0.00 0.00 0.00 85 1017.0
20260901102734 77 360 1.7 4.3 0.00 0.00 0.00 85 1017.1
20260901102655 77 360 1.7 4.3 0.00 0.00 0.00 85 1017.1
20260901102555 77 360 1.7 4.3 0.00 0.00 0.00 85 1017.0
20260901102434 77 360 0.9 4.3 0.00 0.00 0.00 85 1017.0
20260901102334 77 360 1.7 4.3 0.00 0.00 0.00 85 1017.0
20260901102241 77 360 1.7 4.3 0.00 0.00 0.00 85 1017.0
20260901102121 77 360 2.6 4.3 0.00 0.00 0.00 85 1017.1
20260901102021 77 360 1.7 4.3 0.00 0.00 0.00 85 1017.0
20260901101921 77 360 1.7 4.3 0.00 0.00 0.00 85 1017.0
20260901101823 77 360 1.7 3.5 0.00 0.00 0.00 85 1017.1
20260901101744 77 360 1.7 3.5 0.00 0.00 0.00 85 1017.0
20260901101624 77 360 1.7 3.5 0.00 0.00 0.00 85 1017.0
20260901101528 77 360 0.9 3.5 0.00 0.00 0.00 85 1017.1
20260901101429 77 360 0.9 3.5 0.00 0.00 0.00 85 1017.0
20260901101329 77 360 0.9 3.5 0.00 0.00 0.00 85 1017.1
20260901101250 77 360 0.9 3.5 0.00 0.00 0.00 84 1017.0
20260901101130 77 360 0.9 3.5 0.00 0.00 0.00 84 1017.0
20260901101051 77 360 1.7 5.2 0.00 0.00 0.00 84 1017.0
20260901100930 77 360 1.7 5.2 0.00 0.00 0.00 84 1017.0
20260901100831 77 360 1.7 5.2 0.00 0.00 0.00 84 1017.0
20260901100735 77 360 1.7 5.2 0.00 0.00 0.00 84 1017.0
20260901100636 77 360 1.7 5.2 0.00 0.00 0.00 84 1017.1
20260901100534 77 360 0.9 5.2 0.00 0.00 0.00 84 1017.0
20260901100434 77 360 0.9 5.2 0.00 0.00 0.00 84 1017.1
20260901100334 77 360 0.9 5.2 0.00 0.00 0.00 84 1017.0
20260901100235 77 360 0.9 5.2 0.00 0.00 0.00 84 1017.1
20260901100120 78 360 2.6 5.2 0.00 0.00 0.00 84 1017.1
20260901100020 78 360 2.6 5.2 0.00 0.00 0.00 84 1017.1
20260901095921 78 360 1.7 4.3 0.00 0.00 0.00 85 1017.2
20260901095823 78 360 1.7 4.3 0.00 0.00 0.00 85 1017.2
20260901095722 78 360 0.9 2.6 0.00 0.00 0.00 84 1017.2
20260901095623 78 360 0.9 2.6 0.00 0.00 0.00 84 1017.2
20260901095524 78 360 0.9 2.6 0.00 0.00 0.00 84 1017.2
20260901095426 78 188 0.9 4.3 0.00 0.00 0.00 84 1017.2
20260901095347 78 360 1.7 4.3 0.00 0.00 0.00 84 1017.3
20260901095227 78 360 0.9 4.3 0.00 0.00 0.00 84 1017.2
20260901095128 78 360 0.9 4.3 0.00 0.00 0.00 84 1017.3
20260901095029 78 360 0.9 4.3 0.00 0.00 0.00 84 1017.2
20260901094948 78 360 0.9 4.3 0.00 0.00 0.00 84 1017.2
20260901094828 78 360 1.7 4.3 0.00 0.00 0.00 84 1017.3
20260901094728 78 360 2.6 4.3 0.00 0.00 0.00 84 1017.3
20260901094633 78 360 1.7 5.2 0.00 0.00 0.00 84 1017.3
20260901094554 78 360 1.7 5.2 0.00 0.00 0.00 84 1017.3
20260901094433 78 360 1.7 5.2 0.00 0.00 0.00 84 1017.3
20260901094333 78 360 1.7 5.2 0.00 0.00 0.00 84 1017.3
20260901094235 78 360 1.7 5.2 0.00 0.00 0.00 84 1017.3
20260901094135 78 360 1.7 5.2 0.00 0.00 0.00 84 1017.3
20260901094020 78 360 1.7 5.2 0.00 0.00 0.00 84 1017.3
20260901093919 78 360 2.6 5.2 0.00 0.00 0.00 84 1017.3
20260901093820 78 360 1.7 4.3 0.00 0.00 0.00 84 1017.3
20260901093742 78 360 1.7 4.3 0.00 0.00 0.00 84 1017.4
20260901093621 78 360 1.7 4.3 0.00 0.00 0.00 83 1017.3
20260901093521 78 360 1.7 4.3 0.00 0.00 0.00 83 1017.4
20260901093423 78 360 2.6 4.3 0.00 0.00 0.00 83 1017.4
20260901093322 78 360 3.5 4.3 0.00 0.00 0.00 83 1017.4
20260901093227 78 360 2.6 4.3 0.00 0.00 0.00 83 1017.4
20260901093148 78 360 2.6 4.3 0.00 0.00 0.00 83 1017.4
20260901093028 78 360 2.6 4.3 0.00 0.00 0.00 83 1017.4
20260901092948 78 360 1.7 4.3 0.00 0.00 0.00 83 1017.4
20260901092829 78 360 1.7 4.3 0.00 0.00 0.00 83 1017.4
20260901092748 78 360 1.7 4.3 0.00 0.00 0.00 83 1017.4
20260901092627 78 360 1.7 4.3 0.00 0.00 0.00 83 1017.4
20260901092528 78 360 0.9 4.3 0.00 0.00 0.00 83 1017.4
20260901092449 78 360 0.9 4.3 0.00 0.00 0.00 83 1017.4
20260901092332 78 360 1.7 5.2 0.00 0.00 0.00 83 1017.3
20260901092232 78 360 1.7 5.2 0.00 0.00 0.00 83 1017.4
20260901092133 78 360 1.7 5.2 0.00 0.00 0.00 83 1017.4
20260901092033 78 360 1.7 5.2 0.00 0.00 0.00 83 1017.4
20260901091934 78 360 1.7 5.2 0.00 0.00 0.00 83 1017.5
20260901091854 78 360 1.7 5.2 0.00 0.00 0.00 83 1017.4
20260901091717 78 360 2.6 5.2 0.00 0.00 0.00 83 1017.4
20260901091618 78 360 2.6 5.2 0.00 0.00 0.00 83 1017.3
20260901091519 78 360 2.6 5.2 0.00 0.00 0.00 83 1017.4
20260901091419 78 360 2.6 5.2 0.00 0.00 0.00 83 1017.4
20260901091319 78 360 2.6 5.2 0.00 0.00 0.00 83 1017.4
20260901091219 78 360 2.6 5.2 0.00 0.00 0.00 83 1017.4
20260901091120 78 360 1.7 5.2 0.00 0.00 0.00 83 1017.3
20260901091044 78 360 2.6 5.2 0.00 0.00 0.00 83 1017.4
20260901090944 78 360 2.6 5.2 0.00 0.00 0.00 83 1017.3
20260901090843 78 360 1.7 5.2 0.00 0.00 0.00 83 1017.3
20260901090723 78 360 1.7 5.2 0.00 0.00 0.00 83 1017.3
20260901090624 78 360 2.6 5.2 0.00 0.00 0.00 83 1017.2
20260901090524 78 360 1.7 5.2 0.00 0.00 0.00 83 1017.3
20260901090425 78 360 1.7 5.2 0.00 0.00 0.00 83 1017.3
20260901090326 79 360 2.6 5.2 0.00 0.00 0.00 83 1017.3
20260901090231 79 360 2.6 5.2 0.00 0.00 0.00 83 1017.3
20260901090132 79 360 1.7 5.2 0.00 0.00 0.00 82 1017.2
20260901090031 79 360 1.7 5.2 0.00 0.00 0.00 82 1017.3
20260901085932 79 360 1.7 5.2 0.00 0.00 0.00 82 1017.3
20260901085834 79 360 1.7 5.2 0.00 0.00 0.00 82 1017.3
20260901085734 79 360 1.7 7.0 0.00 0.00 0.00 82 1017.3
20260901085638 79 360 0.9 7.0 0.00 0.00 0.00 82 1017.3
20260901085517 79 360 1.7 7.0 0.00 0.00 0.00 82 1017.2
20260901085418 79 360 1.7 7.0 0.00 0.00 0.00 82 1017.2
20260901085319 79 360 1.7 7.0 0.00 0.00 0.00 82 1017.2
20260901085219 79 360 1.7 7.0 0.00 0.00 0.00 82 1017.2
20260901085120 79 360 1.7 7.0 0.00 0.00 0.00 82 1017.2
20260901085020 79 360 2.6 7.0 0.00 0.00 0.00 82 1017.2
20260901084925 79 360 2.6 7.0 0.00 0.00 0.00 82 1017.1
20260901084827 79 360 1.7 7.0 0.00 0.00 0.00 82 1017.1
20260901084747 79 360 1.7 5.2 0.00 0.00 0.00 82 1017.1
20260901084627 79 360 1.7 5.2 0.00 0.00 0.00 83 1017.1
20260901084547 79 360 1.7 5.2 0.00 0.00 0.00 83 1017.1
20260901084427 79 360 1.7 7.8 0.00 0.00 0.00 83 1017.1
20260901084327 79 360 2.6 8.7 0.00 0.00 0.00 83 1017.1
20260901084232 79 360 3.5 8.7 0.00 0.00 0.00 83 1017.1
20260901084133 79 360 3.5 8.7 0.00 0.00 0.00 82 1017.0
20260901084033 79 360 2.6 8.7 0.00 0.00 0.00 82 1017.0
20260901083954 79 360 2.6 8.7 0.00 0.00 0.00 82 1017.0
20260901083833 79 360 2.6 8.7 0.00 0.00 0.00 82 1017.0
20260901083734 79 360 2.6 8.7 0.00 0.00 0.00 82 1017.1
20260901083633 79 360 3.5 8.7 0.00 0.00 0.00 82 1017.1
20260901083538 79 360 4.3 8.7 0.00 0.00 0.00 82 1017.1
20260901083417 79 360 4.3 8.7 0.00 0.00 0.00 82 1017.1
20260901083318 79 360 4.3 8.7 0.00 0.00 0.00 82 1017.1
20260901083218 79 360 2.6 8.7 0.00 0.00 0.00 82 1017.0
20260901083119 79 360 2.6 8.7 0.00 0.00 0.00 82 1017.1
20260901083018 79 360 2.6 8.7 0.00 0.00 0.00 82 1017.1
20260901082918 79 360 3.5 8.7 0.00 0.00 0.00 82 1017.2
20260901082824 79 360 4.3 8.7 0.00 0.00 0.00 82 1017.1
20260901082723 79 360 4.3 8.7 0.00 0.00 0.00 82 1017.2
20260901082643 79 360 4.3 8.7 0.00 0.00 0.00 82 1017.1
20260901082522 79 360 4.3 7.8 0.00 0.00 0.00 82 1017.1
20260901082423 79 360 5.2 7.8 0.00 0.00 0.00 82 1017.1
20260901082324 79 360 5.2 7.8 0.00 0.00 0.00 82 1017.1
20260901082225 79 360 4.3 7.0 0.00 0.00 0.00 82 1017.2
20260901082145 79 360 3.5 7.0 0.00 0.00 0.00 81 1017.1
20260901082028 79 360 3.5 7.0 0.00 0.00 0.00 81 1017.1
20260901081928 79 360 3.5 7.0 0.00 0.00 0.00 81 1017.1
20260901081829 79 360 3.5 7.0 0.00 0.00 0.00 81 1017.0
20260901081730 79 360 3.5 6.1 0.00 0.00 0.00 81 1017.1
20260901081629 79 360 2.6 7.0 0.00 0.00 0.00 81 1017.1
20260901081530 79 360 1.7 5.2 0.00 0.00 0.00 81 1017.1
20260901081435 79 360 0.9 5.2 0.00 0.00 0.00 81 1017.0
20260901081316 79 360 0.9 7.0 0.00 0.00 0.00 81 1017.1
20260901081217 79 360 1.7 7.0 0.00 0.00 0.00 81 1017.1
20260901081116 79 360 2.6 7.0 0.00 0.00 0.00 81 1017.1
20260901081017 79 360 3.5 7.0 0.00 0.00 0.00 81 1017.1
20260901080919 79 360 3.5 7.0 0.00 0.00 0.00 81 1017.1
20260901080824 79 360 2.6 7.0 0.00 0.00 0.00 81 1017.1
20260901080724 79 360 3.5 7.0 0.00 0.00 0.00 81 1017.1
20260901080644 79 360 3.5 7.0 0.00 0.00 0.00 81 1017.1
20260901080525 79 360 3.5 7.0 0.00 0.00 0.00 81 1017.1
20260901080424 79 360 3.5 9.6 0.00 0.00 0.00 81 1017.1
20260901080325 79 360 2.6 9.6 0.00 0.00 0.00 81 1017.1
20260901080225 79 360 2.6 9.6 0.00 0.00 0.00 80 1017.2
20260901080130 79 360 2.6 9.6 0.00 0.00 0.00 80 1017.1
20260901080030 80 360 3.5 9.6 0.00 0.00 0.00 80 1017.2
20260901075931 79 360 3.5 9.6 0.00 0.00 0.00 80 1017.3
20260901075832 80 360 4.3 9.6 0.00 0.00 0.00 80 1017.2
20260901075731 80 360 5.2 9.6 0.00 0.00 0.00 80 1017.2
20260901075630 80 360 5.2 9.6 0.00 0.00 0.00 80 1017.2
20260901075531 80 360 3.5 8.7 0.00 0.00 0.00 80 1017.3
20260901075432 80 360 3.5 8.7 0.00 0.00 0.00 80 1017.2
20260901075316 80 360 4.3 8.7 0.00 0.00 0.00 80 1017.2
20260901075217 80 360 4.3 8.7 0.00 0.00 0.00 80 1017.2
20260901075117 80 360 4.3 8.7 0.00 0.00 0.00 80 1017.2
20260901075018 80 360 5.2 8.7 0.00 0.00 0.00 80 1017.2
20260901074919 80 360 5.2 8.7 0.00 0.00 0.00 80 1017.3
20260901074819 80 184 4.3 8.7 0.00 0.00 0.00 80 1017.2
20260901074724 80 360 4.3 7.8 0.00 0.00 0.00 79 1017.2
20260901074624 80 360 4.3 7.8 0.00 0.00 0.00 79 1017.2
20260901074524 80 360 4.3 7.8 0.00 0.00 0.00 79 1017.1
20260901074424 80 360 4.3 7.8 0.00 0.00 0.00 79 1017.3
20260901074326 80 360 3.5 7.8 0.00 0.00 0.00 79 1017.3
20260901074247 80 360 4.3 7.8 0.00 0.00 0.00 79 1017.2
20260901074126 80 360 2.6 7.0 0.00 0.00 0.00 79 1017.2
20260901074047 80 360 3.5 7.0 0.00 0.00 0.00 79 1017.2
20260901073930 80 360 2.6 7.0 0.00 0.00 0.00 79 1017.2
20260901073830 80 360 1.7 7.0 0.00 0.00 0.00 78 1017.1
20260901073730 80 360 2.6 7.0 0.00 0.00 0.00 78 1017.1
20260901073631 80 360 2.6 7.0 0.00 0.00 0.00 78 1017.2
20260901073531 80 360 3.5 7.0 0.00 0.00 0.00 78 1017.2
20260901073432 80 360 2.6 7.0 0.00 0.00 0.00 78 1017.3
20260901073316 80 360 2.6 7.0 0.00 0.00 0.00 77 1017.3
20260901073236 80 360 2.6 7.0 0.00 0.00 0.00 77 1017.3
20260901073116 80 360 2.6 7.0 0.00 0.00 0.00 77 1017.3
20260901073018 80 360 2.6 7.0 0.00 0.00 0.00 77 1017.2
20260901072938 80 360 2.6 7.0 0.00 0.00 0.00 77 1017.3
20260901072819 80 360 2.6 7.0 0.00 0.00 0.00 77 1017.3
20260901072719 80 360 2.6 7.0 0.00 0.00 0.00 77 1017.3
20260901072623 80 360 2.6 7.0 0.00 0.00 0.00 77 1017.3
20260901072521 80 360 2.6 7.0 0.00 0.00 0.00 77 1017.3
20260901072442 80 360 3.5 7.0 0.00 0.00 0.00 76 1017.2
20260901072322 80 360 3.5 7.0 0.00 0.00 0.00 76 1017.3
20260901072223 80 360 3.5 7.0 0.00 0.00 0.00 76 1017.3
20260901072123 80 360 2.6 5.2 0.00 0.00 0.00 76 1017.2
20260901072024 80 360 3.5 5.2 0.00 0.00 0.00 76 1017.3
20260901071929 80 360 3.5 7.0 0.00 0.00 0.00 76 1017.2
20260901071830 80 360 3.5 7.0 0.00 0.00 0.00 76 1017.2
20260901071730 80 360 2.6 7.0 0.00 0.00 0.00 76 1017.2
20260901071632 80 360 2.6 7.0 0.00 0.00 0.00 76 1017.3
20260901071533 80 360 2.6 7.0 0.00 0.00 0.00 76 1017.3
20260901071431 80 360 2.6 7.0 0.00 0.00 0.00 76 1017.3
20260901071332 80 360 2.6 7.0 0.00 0.00 0.00 75 1017.3
20260901071217 81 360 2.6 7.0 0.00 0.00 0.00 75 1017.2
20260901071117 81 360 3.5 7.0 0.00 0.00 0.00 75 1017.2
20260901071038 81 360 3.5 7.8 0.00 0.00 0.00 75 1017.2
20260901070918 81 360 2.6 7.8 0.00 0.00 0.00 75 1017.3
20260901070817 81 360 1.7 7.8 0.00 0.00 0.00 75 1017.3
20260901070738 81 360 1.7 7.8 0.00 0.00 0.00 75 1017.2
20260901070618 81 360 2.6 7.8 0.00 0.00 0.00 75 1017.3
20260901070522 81 360 3.5 7.8 0.00 0.00 0.00 75 1017.3
20260901070423 81 360 3.5 7.8 0.00 0.00 0.00 75 1017.3
20260901070324 81 360 3.5 7.8 0.00 0.00 0.00 75 1017.2
20260901070224 81 360 3.5 7.8 0.00 0.00 0.00 75 1017.2
20260901070125 81 360 3.5 7.8 0.00 0.00 0.00 75 1017.2
20260901070025 81 360 2.6 7.8 0.00 0.00 0.00 75 1017.2
20260901065945 81 360 2.6 7.0 0.00 0.00 0.00 74 1017.2
20260901065845 81 360 2.6 7.0 0.00 0.00 0.00 74 1017.2
20260901065728 81 360 2.6 7.0 0.00 0.00 0.00 74 1017.1
20260901065628 81 360 2.6 9.6 0.00 0.00 0.00 74 1017.1
20260901065529 81 360 3.5 9.6 0.00 0.00 0.00 74 1017.1
20260901065430 81 360 3.5 9.6 0.00 0.00 0.00 74 1017.1
20260901065331 81 360 3.5 9.6 0.00 0.00 0.00 74 1017.1
20260901065232 81 360 4.3 9.6 0.00 0.00 0.00 74 1017.1
20260901065131 81 360 4.3 9.6 0.00 0.00 0.00 74 1017.1
20260901065056 81 360 5.2 9.6 0.00 0.00 0.00 74 1017.1
20260901064934 81 360 5.2 9.6 0.00 0.00 0.00 74 1017.1
20260901064835 81 360 5.2 9.6 0.00 0.00 0.00 74 1017.0
20260901064716 81 360 5.2 9.6 0.00 0.00 0.00 73 1017.1
20260901064615 81 360 5.2 9.6 0.00 0.00 0.00 73 1017.1
20260901064517 81 360 4.3 9.6 0.00 0.00 0.00 73 1017.0
20260901064420 81 360 4.3 9.6 0.00 0.00 0.00 73 1017.1
20260901064321 81 360 5.2 9.6 0.00 0.00 0.00 73 1017.1
20260901064222 81 360 5.2 9.6 0.00 0.00 0.00 73 1017.1
20260901064143 81 360 5.2 9.6 0.00 0.00 0.00 73 1017.0
20260901064016 81 360 3.5 8.7 0.00 0.00 0.00 73 1017.1
20260901063916 81 360 3.5 8.7 0.00 0.00 0.00 73 1017.1
20260901063817 81 360 5.2 8.7 0.00 0.00 0.00 73 1017.1
20260901063742 81 360 5.2 8.7 0.00 0.00 0.00 73 1017.1
20260901063621 81 360 5.2 8.7 0.00 0.00 0.00 73 1017.2
20260901063541 81 360 5.2 8.7 0.00 0.00 0.00 73 1017.1
20260901063420 81 360 5.2 8.7 0.00 0.00 0.00 73 1017.1
20260901063320 82 360 6.1 8.7 0.00 0.00 0.00 73 1017.2
20260901063241 82 360 5.2 8.7 0.00 0.00 0.00 73 1017.2
20260901063120 82 360 4.3 8.7 0.00 0.00 0.00 73 1017.0
20260901063021 82 360 3.5 8.7 0.00 0.00 0.00 73 1017.2
20260901062924 82 360 4.3 11.3 0.00 0.00 0.00 73 1017.2
20260901062826 82 360 5.2 11.3 0.00 0.00 0.00 73 1017.1
20260901062726 82 360 5.2 11.3 0.00 0.00 0.00 73 1017.1
20260901062626 82 360 5.2 11.3 0.00 0.00 0.00 73 1017.1
20260901062527 82 360 4.3 11.3 0.00 0.00 0.00 72 1017.1
20260901062427 82 360 3.5 11.3 0.00 0.00 0.00 72 1017.1
20260901062332 82 360 4.3 11.3 0.00 0.00 0.00 72 1017.0
20260901062232 82 360 5.2 11.3 0.00 0.00 0.00 72 1017.0
20260901062133 82 360 6.1 11.3 0.00 0.00 0.00 72 1017.0
20260901062032 82 360 6.1 10.4 0.00 0.00 0.00 72 1017.0
20260901061931 82 360 6.1 10.4 0.00 0.00 0.00 72 1016.9
20260901061852 82 360 6.1 10.4 0.00 0.00 0.00 72 1016.9
20260901061733 82 360 5.2 10.4 0.00 0.00 0.00 72 1016.9
20260901061618 82 360 4.3 10.4 0.00 0.00 0.00 72 1016.9
20260901061538 82 360 3.5 10.4 0.00 0.00 0.00 72 1016.9
20260901061417 82 360 5.2 12.2 0.00 0.00 0.00 72 1016.9
20260901061317 82 360 6.1 12.2 0.00 0.00 0.00 72 1016.9
20260901061219 82 360 7.0 12.2 0.00 0.00 0.00 72 1016.9
20260901061119 82 360 7.0 12.2 0.00 0.00 0.00 72 1016.9
20260901061018 82 360 7.0 12.2 0.00 0.00 0.00 72 1016.9
20260901060918 82 360 7.0 12.2 0.00 0.00 0.00 72 1016.9
20260901060823 82 360 7.0 12.2 0.00 0.00 0.00 72 1016.9
20260901060724 83 360 7.0 12.2 0.00 0.00 0.00 72 1016.9
20260901060622 82 360 6.1 12.2 0.00 0.00 0.00 72 1016.8
20260901060522 83 360 5.2 11.3 0.00 0.00 0.00 71 1016.8
20260901060422 83 360 5.2 11.3 0.00 0.00 0.00 71 1016.7
20260901060343 83 360 5.2 11.3 0.00 0.00 0.00 71 1016.7
20260901060222 83 360 5.2 11.3 0.00 0.00 0.00 71 1016.7
20260901060122 83 360 5.2 11.3 0.00 0.00 0.00 71 1016.7
20260901060026 83 360 4.3 11.3 0.00 0.00 0.00 71 1016.7
20260901055926 83 360 3.5 11.3 0.00 0.00 0.00 71 1016.8
20260901055828 83 360 4.3 13.9 0.00 0.00 0.00 71 1016.7
20260901055728 83 360 5.2 13.9 0.00 0.00 0.00 71 1016.7
20260901055628 83 360 5.2 13.9 0.00 0.00 0.00 71 1016.7
20260901055528 83 360 6.1 13.9 0.00 0.00 0.00 71 1016.7
20260901055432 83 360 5.2 13.9 0.00 0.00 0.00 70 1016.7
20260901055333 83 360 6.1 13.9 0.00 0.00 0.00 70 1016.6
20260901055234 83 360 7.8 13.9 0.00 0.00 0.00 70 1016.7
20260901055154 83 360 7.0 13.9 0.00 0.00 0.00 70 1016.7
20260901055053 83 360 7.0 13.9 0.00 0.00 0.00 70 1016.8
20260901054932 83 360 6.1 13.0 0.00 0.00 0.00 70 1016.8
20260901054833 83 360 7.8 13.0 0.00 0.00 0.00 70 1016.8
20260901054753 83 360 8.7 13.0 0.00 0.00 0.00 70 1016.8
20260901054618 83 360 7.8 13.0 0.00 0.00 0.00 70 1016.7
20260901054538 83 360 7.8 13.0 0.00 0.00 0.00 70 1016.8
20260901054417 83 360 7.0 13.0 0.00 0.00 0.00 70 1016.7
20260901054337 83 360 7.0 13.0 0.00 0.00 0.00 70 1016.7
20260901054217 83 360 7.8 13.0 0.00 0.00 0.00 70 1016.8
20260901054137 83 360 7.8 13.0 0.00 0.00 0.00 70 1016.8
20260901054037 83 360 7.0 13.0 0.00 0.00 0.00 70 1016.8
20260901053958 83 360 7.0 13.0 0.00 0.00 0.00 70 1016.8
20260901053857 83 360 7.0 13.0 0.00 0.00 0.00 70 1016.8
20260901053720 83 360 6.1 13.0 0.00 0.00 0.00 70 1016.8
20260901053621 83 360 6.1 14.8 0.00 0.00 0.00 69 1016.7
20260901053522 84 360 6.1 14.8 0.00 0.00 0.00 69 1016.7
20260901053423 84 360 5.2 14.8 0.00 0.00 0.00 69 1016.8
20260901053324 84 360 4.3 14.8 0.00 0.00 0.00 70 1016.7
20260901053224 84 360 4.3 14.8 0.00 0.00 0.00 69 1016.8
20260901053124 84 360 6.1 14.8 0.00 0.00 0.00 70 1016.8
20260901053047 84 360 7.0 14.8 0.00 0.00 0.00 70 1016.7
20260901052927 84 360 7.0 14.8 0.00 0.00 0.00 70 1016.8
20260901052828 84 360 7.8 14.8 0.00 0.00 0.00 70 1016.8
20260901052727 84 360 6.1 14.8 0.00 0.00 0.00 70 1016.7
20260901052629 84 360 6.1 14.8 0.00 0.00 0.00 70 1016.8
20260901052529 84 360 5.2 13.9 0.00 0.00 0.00 70 1016.8
20260901052450 84 360 6.1 13.9 0.00 0.00 0.00 70 1016.8
20260901052333 84 360 6.1 13.9 0.00 0.00 0.00 70 1016.7
20260901052234 84 360 5.2 13.9 0.00 0.00 0.00 70 1016.7
20260901052134 84 360 5.2 13.9 0.00 0.00 0.00 70 1016.7
20260901052035 84 360 5.2 13.9 0.00 0.00 0.00 70 1016.7
20260901051955 84 360 6.1 13.9 0.00 0.00 0.00 69 1016.7
20260901051835 84 360 6.1 13.9 0.00 0.00 0.00 69 1016.7
20260901051735 84 360 7.0 13.0 0.00 0.00 0.00 69 1016.7
20260901051619 84 360 6.1 13.0 0.00 0.00 0.00 69 1016.6
20260901051541 84 360 4.3 11.3 0.00 0.00 0.00 69 1016.6
20260901051420 84 360 5.2 11.3 0.00 0.00 0.00 69 1016.6
20260901051321 84 360 7.0 11.3 0.00 0.00 0.00 69 1016.6
20260901051221 84 360 7.0 12.2 0.00 0.00 0.00 69 1016.6
20260901051122 84 360 5.2 12.2 0.00 0.00 0.00 69 1016.5
20260901051044 84 360 4.3 12.2 0.00 0.00 0.00 69 1016.6
20260901050922 84 360 3.5 12.2 0.00 0.00 0.00 69 1016.5
20260901050827 84 360 5.2 12.2 0.00 0.00 0.00 69 1016.5
20260901050748 84 360 5.2 12.2 0.00 0.00 0.00 69 1016.5
20260901050627 84 360 7.0 12.2 0.00 0.00 0.00 69 1016.6
20260901050528 84 360 7.0 13.0 0.00 0.00 0.00 69 1016.6
20260901050429 84 360 7.0 13.0 0.00 0.00 0.00 69 1016.6
20260901050329 84 360 7.0 13.0 0.00 0.00 0.00 69 1016.6
20260901050230 84 360 7.8 14.8 0.00 0.00 0.00 69 1016.5
20260901050134 85 360 7.0 14.8 0.00 0.00 0.00 69 1016.5
20260901050055 85 360 7.0 15.6 0.00 0.00 0.00 69 1016.5
20260901045927 85 360 7.0 15.6 0.00 0.00 0.00 69 1016.6
20260901045827 85 360 7.0 15.6 0.00 0.00 0.00 69 1016.5
20260901045746 85 360 7.0 15.6 0.00 0.00 0.00 69 1016.6
20260901045626 85 360 7.0 15.6 0.00 0.00 0.00 69 1016.6
20260901045526 85 360 9.6 15.6 0.00 0.00 0.00 69 1016.7
20260901045427 85 360 9.6 15.6 0.00 0.00 0.00 69 1016.7
20260901045330 85 360 8.7 15.6 0.00 0.00 0.00 69 1016.6
20260901045231 85 360 7.8 15.6 0.00 0.00 0.00 69 1016.7
20260901045152 85 360 7.8 14.8 0.00 0.00 0.00 69 1016.6
20260901045031 85 360 7.0 14.8 0.00 0.00 0.00 69 1016.6
20260901044931 85 360 6.1 14.8 0.00 0.00 0.00 69 1016.5
20260901044831 85 360 5.2 14.8 0.00 0.00 0.00 69 1016.5
20260901044732 85 360 6.1 14.8 0.00 0.00 0.00 69 1016.6
20260901044616 85 360 7.0 14.8 0.00 0.00 0.00 69 1016.5
20260901044537 85 360 7.8 14.8 0.00 0.00 0.00 68 1016.5
20260901044457 85 360 7.8 14.8 0.00 0.00 0.00 68 1016.6
20260901044316 85 360 7.0 13.0 0.00 0.00 0.00 68 1016.5
20260901044217 85 360 7.0 13.0 0.00 0.00 0.00 68 1016.5
20260901044138 85 360 7.0 13.0 0.00 0.00 0.00 68 1016.5
20260901044018 85 360 7.0 13.0 0.00 0.00 0.00 68 1016.5
20260901043938 85 360 7.0 13.0 0.00 0.00 0.00 68 1016.5
20260901043822 85 360 7.0 13.0 0.00 0.00 0.00 68 1016.4
20260901043722 85 360 7.8 13.0 0.00 0.00 0.00 68 1016.4
20260901043623 85 360 7.8 13.0 0.00 0.00 0.00 68 1016.5
20260901043544 85 360 7.0 13.0 0.00 0.00 0.00 68 1016.5
20260901043443 85 360 6.1 12.2 0.00 0.00 0.00 68 1016.5
20260901043322 85 360 6.1 12.2 0.00 0.00 0.00 68 1016.5
20260901043222 85 360 7.8 12.2 0.00 0.00 0.00 67 1016.4
20260901043127 85 360 9.6 12.2 0.00 0.00 0.00 67 1016.5
20260901043028 85 360 9.6 13.0 0.00 0.00 0.00 67 1016.4
20260901042929 85 360 8.7 14.8 0.00 0.00 0.00 67 1016.5
20260901042831 85 360 7.8 14.8 0.00 0.00 0.00 67 1016.5
20260901042731 85 360 7.0 14.8 0.00 0.00 0.00 67 1016.4
20260901042633 86 360 7.0 14.8 0.00 0.00 0.00 67 1016.5
20260901042517 86 360 7.0 14.8 0.00 0.00 0.00 67 1016.5
20260901042417 86 360 7.8 14.8 0.00 0.00 0.00 67 1016.4
20260901042338 86 360 7.8 14.8 0.00 0.00 0.00 66 1016.4
20260901042218 86 360 7.0 14.8 0.00 0.00 0.00 66 1016.5
20260901042118 86 360 7.0 14.8 0.00 0.00 0.00 66 1016.4
20260901042019 86 360 8.7 14.8 0.00 0.00 0.00 66 1016.5
20260901041919 86 360 9.6 13.9 0.00 0.00 0.00 66 1016.5
20260901041824 86 360 8.7 13.9 0.00 0.00 0.00 66 1016.5
20260901041725 86 360 8.7 13.9 0.00 0.00 0.00 66 1016.4
20260901041625 86 360 8.7 13.9 0.00 0.00 0.00 66 1016.5
20260901041526 86 360 8.7 14.8 0.00 0.00 0.00 66 1016.4
20260901041425 86 360 8.7 14.8 0.00 0.00 0.00 66 1016.4
20260901041326 86 360 7.8 14.8 0.00 0.00 0.00 66 1016.4
20260901041248 86 360 7.8 14.8 0.00 0.00 0.00 66 1016.4
20260901041147 86 360 7.8 14.8 0.00 0.00 0.00 66 1016.4
20260901041030 86 360 7.8 14.8 0.00 0.00 0.00 65 1016.4
20260901040931 86 360 7.8 14.8 0.00 0.00 0.00 65 1016.4
20260901040831 86 360 8.7 14.8 0.00 0.00 0.00 65 1016.5
20260901040755 86 360 9.6 14.8 0.00 0.00 0.00 65 1016.4
20260901040632 86 360 8.7 14.8 0.00 0.00 0.00 65 1016.5
20260901040553 86 360 7.8 14.8 0.00 0.00 0.00 65 1016.4
20260901040431 86 360 7.0 14.8 0.00 0.00 0.00 65 1016.4
20260901040317 86 360 7.8 14.8 0.00 0.00 0.00 65 1016.4
20260901040216 86 360 7.8 14.8 0.00 0.00 0.00 65 1016.4
20260901040116 86 360 7.8 14.8 0.00 0.00 0.00 65 1016.4
20260901040018 86 360 8.7 14.8 0.00 0.00 0.00 65 1016.4
20260901035917 86 360 8.7 14.8 0.00 0.00 0.00 65 1016.4
20260901035819 86 360 8.7 13.9 0.00 0.00 0.00 65 1016.5
20260901035718 86 360 7.8 13.9 0.00 0.00 0.00 65 1016.4
20260901035623 86 360 7.0 13.9 0.00 0.00 0.00 65 1016.5
20260901035522 86 360 6.1 13.9 0.00 0.00 0.00 64 1016.4
20260901035443 86 360 7.0 15.6 0.00 0.00 0.00 64 1016.4
20260901035343 86 360 7.8 15.6 0.00 0.00 0.00 64 1016.4
20260901035222 86 360 8.7 15.6 0.00 0.00 0.00 64 1016.4
20260901035123 86 360 7.0 15.6 0.00 0.00 0.00 64 1016.4
20260901035023 86 360 7.0 15.6 0.00 0.00 0.00 64 1016.5
20260901034922 86 360 7.0 15.6 0.00 0.00 0.00 64 1016.5
20260901034843 87 360 9.6 15.6 0.00 0.00 0.00 64 1016.5
20260901034725 87 360 9.6 15.6 0.00 0.00 0.00 64 1016.4
20260901034627 86 360 8.7 13.9 0.00 0.00 0.00 64 1016.5
20260901034546 87 360 7.0 13.0 0.00 0.00 0.00 64 1016.4
20260901034446 87 360 6.1 13.0 0.00 0.00 0.00 63 1016.4
20260901034326 87 360 6.1 13.0 0.00 0.00 0.00 63 1016.4
20260901034227 87 360 6.1 13.0 0.00 0.00 0.00 63 1016.3
20260901034127 87 360 7.8 13.0 0.00 0.00 0.00 63 1016.3
20260901034031 87 360 7.8 13.0 0.00 0.00 0.00 63 1016.3
20260901033932 87 360 7.8 16.5 0.00 0.00 0.00 63 1016.4
20260901033832 87 360 7.8 16.5 0.00 0.00 0.00 63 1016.3
20260901033753 87 360 7.8 16.5 0.00 0.00 0.00 63 1016.3
20260901033633 87 360 8.7 16.5 0.00 0.00 0.00 63 1016.3
20260901033554 87 360 9.6 16.5 0.00 0.00 0.00 63 1016.3
20260901033433 87 360 8.7 16.5 0.00 0.00 0.00 63 1016.3
20260901033318 87 360 8.7 16.5 0.00 0.00 0.00 62 1016.3
20260901033218 87 360 8.7 16.5 0.00 0.00 0.00 62 1016.2
20260901033118 87 360 8.7 16.5 0.00 0.00 0.00 62 1016.2
20260901033018 87 360 7.8 15.6 0.00 0.00 0.00 62 1016.3
20260901032919 87 360 7.8 15.6 0.00 0.00 0.00 62 1016.2
20260901032820 87 360 7.8 15.6 0.00 0.00 0.00 62 1016.2
20260901032720 87 360 9.6 15.6 0.00 0.00 0.00 61 1016.3
20260901032623 87 360 9.6 15.6 0.00 0.00 0.00 61 1016.3
20260901032524 87 360 9.6 15.6 0.00 0.00 0.00 61 1016.3
20260901032424 87 360 8.7 15.6 0.00 0.00 0.00 61 1016.2
20260901032345 87 360 8.7 15.6 0.00 0.00 0.00 61 1016.2
20260901032223 87 360 8.7 15.6 0.00 0.00 0.00 60 1016.2
20260901032144 87 360 8.7 15.6 0.00 0.00 0.00 60 1016.1
20260901032024 87 360 8.7 15.6 0.00 0.00 0.00 60 1016.2
20260901031923 87 360 10.4 15.6 0.00 0.00 0.00 60 1016.2
20260901031849 87 360 10.4 15.6 0.00 0.00 0.00 60 1016.1
20260901031728 87 360 10.4 15.6 0.00 0.00 0.00 59 1016.1
20260901031629 87 360 9.6 16.5 0.00 0.00 0.00 59 1016.2
20260901031548 87 360 9.6 16.5 0.00 0.00 0.00 59 1016.1
20260901031428 87 360 8.7 18.2 0.00 0.00 0.00 59 1016.1
20260901031329 87 360 9.6 18.2 0.00 0.00 0.00 59 1016.1
20260901031229 88 360 8.7 18.2 0.00 0.00 0.00 58 1016.1
20260901031134 88 360 9.6 18.2 0.00 0.00 0.00 58 1016.1
20260901031034 88 360 10.4 18.2 0.00 0.00 0.00 58 1016.1
20260901030954 88 360 12.2 18.2 0.00 0.00 0.00 58 1016.1
20260901030834 88 360 13.0 19.1 0.00 0.00 0.00 58 1016.1
20260901030754 88 360 13.0 19.1 0.00 0.00 0.00 57 1016.0
20260901030635 88 360 12.2 19.1 0.00 0.00 0.00 57 1016.0
20260901030555 88 360 12.2 19.1 0.00 0.00 0.00 57 1015.9
20260901030454 88 360 10.4 19.1 0.00 0.00 0.00 57 1016.0
20260901030333 88 360 11.3 19.1 0.00 0.00 0.00 57 1016.0
20260901030217 88 360 11.3 19.1 0.00 0.00 0.00 56 1015.9
20260901030118 88 360 12.2 19.1 0.00 0.00 0.00 56 1015.9
20260901030019 88 360 11.3 19.1 0.00 0.00 0.00 56 1015.9
20260901025920 88 360 9.6 19.1 0.00 0.00 0.00 56 1015.8
20260901025821 88 360 7.8 17.4 0.00 0.00 0.00 55 1015.9
20260901025719 88 360 8.7 18.2 0.00 0.00 0.00 54 1015.9
20260901025640 88 360 10.4 18.2 0.00 0.00 0.00 54 1015.8
20260901025524 88 360 11.3 18.2 0.00 0.00 0.00 54 1015.8
20260901025425 88 360 10.4 18.2 0.00 0.00 0.00 54 1015.8
20260901025325 88 360 9.6 18.2 0.00 0.00 0.00 54 1015.8
20260901025225 89 360 8.7 18.2 0.00 0.00 0.00 53 1015.8
20260901025126 89 360 9.6 18.2 0.00 0.00 0.00 53 1015.8
20260901025027 89 360 11.3 18.2 0.00 0.00 0.00 52 1015.7
20260901024927 89 360 12.2 18.2 0.00 0.00 0.00 52 1015.8
20260901024830 89 360 13.0 18.2 0.00 0.00 0.00 52 1015.7
20260901024732 89 360 12.2 17.4 0.00 0.00 0.00 52 1015.6
20260901024633 89 360 13.0 17.4 0.00 0.00 0.00 52 1015.7
20260901024535 89 360 13.0 17.4 0.00 0.00 0.00 51 1015.6
20260901024435 89 360 12.2 17.4 0.00 0.00 0.00 51 1015.6
20260901024316 89 360 9.6 17.4 0.00 0.00 0.00 51 1015.6
20260901024221 89 360 8.7 16.5 0.00 0.00 0.00 49 1015.7
20260901024142 89 360 7.8 13.0 0.00 0.00 0.00 48 1015.6
20260901024022 89 360 7.0 13.0 0.00 0.00 0.00 48 1015.5
20260901023921 89 360 6.1 13.0 0.00 0.00 0.00 48 1015.6
20260901023822 89 360 6.1 8.7 0.00 0.00 0.00 48 1015.6
20260901023723 89 360 6.1 8.7 0.00 0.00 0.00 48 1015.5
20260901023623 89 360 5.2 8.7 0.00 0.00 0.00 48 1015.5
20260901023527 89 360 5.2 8.7 0.00 0.00 0.00 48 1015.5
20260901023428 89 360 4.3 7.8 0.00 0.00 0.00 48 1015.4
20260901023329 89 360 4.3 7.8 0.00 0.00 0.00 48 1015.4
20260901023227 89 360 5.2 7.8 0.00 0.00 0.00 48 1015.4
20260901023147 89 360 5.2 7.8 0.00 0.00 0.00 48 1015.4
20260901023026 89 360 4.3 7.8 0.00 0.00 0.00 48 1015.3
20260901022928 89 360 4.3 7.8 0.00 0.00 0.00 49 1015.4
20260901022834 89 360 3.5 7.0 0.00 0.00 0.00 49 1015.4
20260901022733 89 360 3.5 7.8 0.00 0.00 0.00 49 1015.3
20260901022634 89 360 3.5 7.8 0.00 0.00 0.00 49 1015.3
20260901022534 89 360 3.5 7.8 0.00 0.00 0.00 49 1015.3
20260901022455 89 360 3.5 7.8 0.00 0.00 0.00 49 1015.3
20260901022335 89 360 3.5 7.8 0.00 0.00 0.00 49 1015.3
20260901022220 89 360 4.3 7.8 0.00 0.00 0.00 49 1015.2
20260901022141 89 360 4.3 7.8 0.00 0.00 0.00 49 1015.2
20260901022019 89 360 4.3 7.8 0.00 0.00 0.00 49 1015.2
20260901021940 89 360 5.2 7.8 0.00 0.00 0.00 49 1015.1
20260901021839 89 360 4.3 7.8 0.00 0.00 0.00 49 1015.2
20260901021716 89 360 4.3 7.8 0.00 0.00 0.00 49 1015.2
20260901021618 89 360 4.3 7.8 0.00 0.00 0.00 49 1015.1
20260901021518 89 360 4.3 7.8 0.00 0.00 0.00 49 1015.2
20260901021419 89 360 4.3 7.8 0.00 0.00 0.00 49 1015.1
20260901021323 89 360 4.3 7.8 0.00 0.00 0.00 49 1015.1
20260901021223 89 360 4.3 7.0 0.00 0.00 0.00 49 1015.1
20260901021124 89 360 4.3 7.0 0.00 0.00 0.00 49 1015.1
20260901021025 89 360 4.3 7.0 0.00 0.00 0.00 50 1015.1
20260901020926 89 360 3.5 7.0 0.00 0.00 0.00 49 1015.1
20260901020826 89 360 4.3 7.0 0.00 0.00 0.00 49 1015.1
20260901020726 89 360 4.3 7.0 0.00 0.00 0.00 49 1015.1
20260901020630 89 360 3.5 7.0 0.00 0.00 0.00 49 1015.2
20260901020531 89 360 3.5 7.0 0.00 0.00 0.00 49 1015.1
20260901020430 89 360 3.5 7.0 0.00 0.00 0.00 49 1015.1
20260901020331 89 360 3.5 7.0 0.00 0.00 0.00 49 1015.1
20260901020251 89 360 3.5 7.0 0.00 0.00 0.00 49 1015.0
20260901020130 89 360 3.5 7.0 0.00 0.00 0.00 49 1015.0
20260901020031 89 360 3.5 5.2 0.00 0.00 0.00 49 1014.9
20260901015935 89 360 3.5 5.2 0.00 0.00 0.00 49 1015.0
20260901015818 89 360 2.6 5.2 0.00 0.00 0.00 49 1015.0
20260901015717 89 360 2.6 4.3 0.00 0.00 0.00 49 1014.9
20260901015617 89 360 1.7 4.3 0.00 0.00 0.00 49 1014.9
20260901015538 89 360 2.6 4.3 0.00 0.00 0.00 49 1014.8
20260901015419 89 360 1.7 4.3 0.00 0.00 0.00 49 1014.8
20260901015321 90 360 2.6 4.3 0.00 0.00 0.00 49 1014.7
20260901015225 90 360 1.7 3.5 0.00 0.00 0.00 48 1014.7
20260901015126 90 360 1.7 3.5 0.00 0.00 0.00 48 1014.7
20260901015046 90 360 1.7 3.5 0.00 0.00 0.00 49 1014.7
20260901014947 90 360 1.7 3.5 0.00 0.00 0.00 48 1014.7
20260901014827 90 360 1.7 3.5 0.00 0.00 0.00 48 1014.6
20260901014727 90 360 1.7 3.5 0.00 0.00 0.00 48 1014.7
20260901014625 90 360 1.7 4.3 0.00 0.00 0.00 48 1014.6
20260901014529 90 360 1.7 4.3 0.00 0.00 0.00 48 1014.7
20260901014431 90 360 1.7 4.3 0.00 0.00 0.00 48 1014.6
20260901014331 90 360 1.7 4.3 0.00 0.00 0.00 48 1014.7
20260901014252 90 360 1.7 4.3 0.00 0.00 0.00 48 1014.6
20260901014131 90 360 1.7 4.3 0.00 0.00 0.00 48 1014.7
20260901014031 90 360 1.7 4.3 0.00 0.00 0.00 48 1014.6
20260901013931 90 360 1.7 4.3 0.00 0.00 0.00 48 1014.7
20260901013816 90 360 1.7 3.5 0.00 0.00 0.00 48 1014.6
20260901013716 90 360 1.7 3.5 0.00 0.00 0.00 47 1014.6
20260901013617 90 360 1.7 3.5 0.00 0.00 0.00 47 1014.6
20260901013518 90 360 1.7 2.6 0.00 0.00 0.00 47 1014.6
20260901013419 90 360 1.7 2.6 0.00 0.00 0.00 47 1014.6
20260901013319 90 142 1.7 2.6 0.00 0.00 0.00 47 1014.6
20260901013225 90 360 1.7 2.6 0.00 0.00 0.00 47 1014.6
20260901013126 90 142 1.7 3.5 0.00 0.00 0.00 47 1014.6
20260901013046 90 360 1.7 3.5 0.00 0.00 0.00 47 1014.6
20260901012946 91 360 1.7 3.5 0.00 0.00 0.00 47 1014.6
20260901012847 91 360 1.7 3.5 0.00 0.00 0.00 48 1014.6
20260901012745 91 360 1.7 3.5 0.00 0.00 0.00 47 1014.6
20260901012624 91 360 1.7 3.5 0.00 0.00 0.00 47 1014.6
20260901012545 91 360 1.7 3.5 0.00 0.00 0.00 47 1014.6
20260901012425 91 360 1.7 2.6 0.00 0.00 0.00 47 1014.7
20260901012329 91 143 1.7 2.6 0.00 0.00 0.00 47 1014.6
20260901012229 91 360 1.7 3.5 0.00 0.00 0.00 47 1014.6
20260901012130 91 360 0.9 3.5 0.00 0.00 0.00 47 1014.6
20260901012051 91 360 1.7 3.5 0.00 0.00 0.00 47 1014.5
20260901011931 91 142 1.7 3.5 0.00 0.00 0.00 47 1014.5
20260901011831 91 142 1.7 3.5 0.00 0.00 0.00 47 1014.5
20260901011732 91 360 1.7 3.5 0.00 0.00 0.00 47 1014.4
20260901011617 91 360 1.7 3.5 0.00 0.00 0.00 47 1014.6
20260901011519 91 360 1.7 3.5 0.00 0.00 0.00 47 1014.5
20260901011419 91 360 1.7 3.5 0.00 0.00 0.00 46 1014.5
20260901011340 91 360 1.7 3.5 0.00 0.00 0.00 46 1014.5
20260901011220 91 360 2.6 4.3 0.00 0.00 0.00 46 1014.4
20260901011119 91 360 1.7 4.3 0.00 0.00 0.00 46 1014.4
20260901011040 91 360 1.7 4.3 0.00 0.00 0.00 46 1014.4
20260901010924 91 360 1.7 4.3 0.00 0.00 0.00 46 1014.4
20260901010825 91 360 1.7 4.3 0.00 0.00 0.00 46 1014.3
20260901010726 91 360 2.6 4.3 0.00 0.00 0.00 46 1014.3
20260901010625 92 360 2.6 4.3 0.00 0.00 0.00 46 1014.3
20260901010546 92 360 1.7 4.3 0.00 0.00 0.00 46 1014.4
20260901010425 92 360 1.7 3.5 0.00 0.00 0.00 46 1014.3
20260901010326 92 360 1.7 3.5 0.00 0.00 0.00 46 1014.3
20260901010230 92 360 1.7 4.3 0.00 0.00 0.00 46 1014.4
20260901010130 92 360 1.7 4.3 0.00 0.00 0.00 46 1014.4
20260901010031 92 146 1.7 4.3 0.00 0.00 0.00 46 1014.4
20260901005931 92 360 1.7 4.3 0.00 0.00 0.00 46 1014.4
20260901005833 92 146 1.7 4.3 0.00 0.00 0.00 46 1014.4
20260901005732 92 360 1.7 4.3 0.00 0.00 0.00 46 1014.3
20260901005616 92 360 2.6 4.3 0.00 0.00 0.00 46 1014.3
20260901005517 92 360 2.6 4.3 0.00 0.00 0.00 45 1014.4
20260901005437 92 147 2.6 4.3 0.00 0.00 0.00 45 1014.3
20260901005336 92 360 1.7 4.3 0.00 0.00 0.00 45 1014.4
20260901005257 92 360 1.7 4.3 0.00 0.00 0.00 45 1014.3
20260901005116 93 360 1.7 4.3 0.00 0.00 0.00 45 1014.3
20260901005017 93 122 1.7 4.3 0.00 0.00 0.00 45 1014.4
20260901004917 93 123 1.7 4.3 0.00 0.00 0.00 45 1014.3
20260901004842 93 360 1.7 5.2 0.00 0.00 0.00 45 1014.3
20260901004721 93 122 2.6 5.2 0.00 0.00 0.00 45 1014.3
20260901004622 93 360 2.6 7.8 0.00 0.00 0.00 44 1014.3
20260901004523 93 360 2.6 9.6 0.00 0.00 0.00 44 1014.4
20260901004424 93 117 2.6 9.6 0.00 0.00 0.00 44 1014.3
20260901004324 93 117 1.7 9.6 0.00 0.00 0.00 44 1014.3
20260901004225 93 117 2.6 9.6 0.00 0.00 0.00 44 1014.3
20260901004130 93 360 2.6 9.6 0.00 0.00 0.00 44 1014.4
20260901004030 93 360 4.3 9.6 0.00 0.00 0.00 44 1014.3
20260901003931 93 360 4.3 8.7 0.00 0.00 0.00 44 1014.3
20260901003830 93 360 4.3 8.7 0.00 0.00 0.00 44 1014.3
20260901003731 93 360 3.5 8.7 0.00 0.00 0.00 44 1014.4
20260901003634 93 360 2.6 7.8 0.00 0.00 0.00 44 1014.3
20260901003518 93 360 2.6 8.7 0.00 0.00 0.00 44 1014.4
20260901003419 94 360 3.5 8.7 0.00 0.00 0.00 44 1014.4
20260901003319 94 360 3.5 9.6 0.00 0.00 0.00 44 1014.4
20260901003240 94 360 3.5 9.6 0.00 0.00 0.00 44 1014.3
20260901003118 94 360 3.5 9.6 0.00 0.00 0.00 44 1014.3
20260901003019 94 360 3.5 10.4 0.00 0.00 0.00 44 1014.3
20260901002939 94 360 3.5 10.4 0.00 0.00 0.00 44 1014.3
20260901002825 94 360 3.5 10.4 0.00 0.00 0.00 44 1014.2
20260901002744 94 360 4.3 10.4 0.00 0.00 0.00 44 1014.2
20260901002643 94 360 4.3 10.4 0.00 0.00 0.00 43 1014.2
20260901002523 94 360 4.3 13.0 0.00 0.00 0.00 43 1014.1
20260901002423 94 360 4.3 13.0 0.00 0.00 0.00 43 1014.2
20260901002323 94 360 4.3 13.0 0.00 0.00 0.00 43 1014.2
20260901002224 94 360 4.3 13.0 0.00 0.00 0.00 43 1014.2
20260901002124 94 360 5.2 13.0 0.00 0.00 0.00 43 1014.2
20260901002029 94 360 5.2 13.0 0.00 0.00 0.00 43 1014.2
20260901001930 94 360 6.1 13.0 0.00 0.00 0.00 43 1014.2
20260901001830 94 360 5.2 13.0 0.00 0.00 0.00 43 1014.2
20260901001751 94 360 6.1 13.0 0.00 0.00 0.00 44 1014.2
20260901001630 94 360 7.0 13.0 0.00 0.00 0.00 44 1014.1
20260901001531 94 360 6.1 10.4 0.00 0.00 0.00 44 1014.2
20260901001415 94 360 6.1 9.6 0.00 0.00 0.00 44 1014.2
20260901001316 94 360 5.2 9.6 0.00 0.00 0.00 44 1014.2
20260901001217 94 116 4.3 9.6 0.00 0.00 0.00 44 1014.3
20260901001118 94 360 5.2 9.6 0.00 0.00 0.00 44 1014.2
20260901001018 94 360 5.2 9.6 0.00 0.00 0.00 44 1014.3
20260901000918 94 360 4.3 9.6 0.00 0.00 0.00 44 1014.2
20260901000819 94 117 5.2 8.7 0.00 0.00 0.00 44 1014.2
20260901000724 95 360 5.2 8.7 0.00 0.00 0.00 44 1014.2
20260901000644 95 360 5.2 8.7 0.00 0.00 0.00 44 1014.2
20260901000524 95 360 4.3 8.7 0.00 0.00 0.00 44 1014.2
20260901000424 95 360 3.5 7.0 0.00 0.00 0.00 44 1014.2
20260901000325 95 360 2.6 7.0 0.00 0.00 0.00 44 1014.2
20260901000248 95 360 2.6 4.3 0.00 0.00 0.00 45 1014.1
20260901000145 95 360 2.6 4.3 0.00 0.00 0.00 45 1014.2
20260901000024 95 360 2.6 4.3 0.00 0.00 0.00 44 1014.2
20260831235929 95 360 2.6 4.3 0.00 0.00 0.00 44 1014.2
20260831235829 95 360 2.6 4.3 0.00 0.00 0.00 44 1014.1
20260831235729 95 360 2.6 4.3 0.00 0.00 0.00 44 1014.1
20260831235628 95 360 1.7 4.3 0.00 0.00 0.00 43 1014.2
20260831235549 95 360 2.6 4.3 0.00 0.00 0.00 44 1014.2
20260831235429 95 360 1.7 5.2 0.00 0.00 0.00 44 1014.1
20260831235349 95 136 2.6 5.2 0.00 0.00 0.00 44 1014.2
20260831235228 95 136 2.6 5.2 0.00 0.00 0.00 44 1014.1
20260831235153 95 360 2.6 5.2 0.00 0.00 0.00 44 1014.2
20260831235033 95 360 2.6 5.2 0.00 0.00 0.00 44 1014.2
20260831234933 95 360 2.6 5.2 0.00 0.00 0.00 44 1014.2
20260831234834 95 360 3.5 5.2 0.00 0.00 0.00 44 1014.2
20260831234734 95 360 2.6 5.2 0.00 0.00 0.00 44 1014.2
20260831234635 95 360 2.6 5.2 0.00 0.00 0.00 44 1014.1
20260831234521 95 360 1.7 4.3 0.00 0.00 0.00 45 1014.2
20260831234421 95 360 1.7 4.3 0.00 0.00 0.00 45 1014.2
20260831234322 95 360 1.7 4.3 0.00 0.00 0.00 45 1014.1
20260831234242 95 151 2.6 4.3 0.00 0.00 0.00 45 1014.2
20260831234122 95 360 2.6 4.3 0.00 0.00 0.00 45 1014.1
20260831234042 95 360 2.6 4.3 0.00 0.00 0.00 45 1014.2
20260831233923 95 360 2.6 4.3 0.00 0.00 0.00 45 1014.1
20260831233823 95 360 2.6 4.3 0.00 0.00 0.00 45 1014.1
20260831233728 95 360 2.6 7.8 0.00 0.00 0.00 45 1014.1
20260831233629 95 360 1.7 7.8 0.00 0.00 0.00 45 1014.1
20260831233528 95 360 1.7 8.7 0.00 0.00 0.00 45 1014.1
20260831233429 95 158 1.7 8.7 0.00 0.00 0.00 45 1014.2
20260831233329 95 360 2.6 8.7 0.00 0.00 0.00 45 1014.1
20260831233230 95 360 3.5 8.7 0.00 0.00 0.00 44 1014.2
20260831233130 95 360 3.5 10.4 0.00 0.00 0.00 44 1014.2
20260831233035 95 360 3.5 10.4 0.00 0.00 0.00 44 1014.1
20260831232935 95 360 4.3 10.4 0.00 0.00 0.00 44 1014.2
20260831232817 95 360 3.5 10.4 0.00 0.00 0.00 45 1014.3
20260831232716 94 360 4.3 10.4 0.00 0.00 0.00 44 1014.2
20260831232617 94 360 4.3 10.4 0.00 0.00 0.00 45 1014.3
20260831232517 94 360 5.2 10.4 0.00 0.00 0.00 45 1014.3
20260831232422 94 360 5.2 10.4 0.00 0.00 0.00 45 1014.2
20260831232322 94 360 5.2 10.4 0.00 0.00 0.00 45 1014.2
20260831232223 94 360 5.2 10.4 0.00 0.00 0.00 46 1014.2
20260831232143 94 360 4.3 8.7 0.00 0.00 0.00 46 1014.2
20260831232023 94 360 4.3 8.7 0.00 0.00 0.00 46 1014.2
20260831231924 94 360 3.5 8.7 0.00 0.00 0.00 46 1014.2
20260831231825 94 360 3.5 8.7 0.00 0.00 0.00 46 1014.2
20260831231730 94 360 3.5 8.7 0.00 0.00 0.00 46 1014.3
20260831231629 94 360 4.3 8.7 0.00 0.00 0.00 46 1014.3
20260831231550 94 360 4.3 8.7 0.00 0.00 0.00 46 1014.2
20260831231430 94 360 5.2 8.7 0.00 0.00 0.00 45 1014.3
20260831231351 94 360 4.3 8.7 0.00 0.00 0.00 45 1014.3
20260831231231 94 360 4.3 8.7 0.00 0.00 0.00 46 1014.4
20260831231131 94 360 5.2 8.7 0.00 0.00 0.00 46 1014.3
20260831231035 94 360 4.3 8.7 0.00 0.00 0.00 46 1014.3
20260831230956 94 360 4.3 8.7 0.00 0.00 0.00 46 1014.4
20260831230856 94 360 3.5 8.7 0.00 0.00 0.00 45 1014.4
20260831230735 94 360 4.3 8.7 0.00 0.00 0.00 45 1014.3
20260831230636 94 360 5.2 9.6 0.00 0.00 0.00 45 1014.4
20260831230516 94 360 5.2 9.6 0.00 0.00 0.00 45 1014.4
20260831230417 95 360 5.2 9.6 0.00 0.00 0.00 45 1014.4
20260831230321 95 360 5.2 9.6 0.00 0.00 0.00 45 1014.4
20260831230221 95 360 5.2 9.6 0.00 0.00 0.00 45 1014.4
20260831230122 95 360 6.1 9.6 0.00 0.00 0.00 45 1014.3
20260831230022 95 360 7.0 9.6 0.00 0.00 0.00 45 1014.3
20260831225923 95 78 6.1 10.4 0.00 0.00 0.00 44 1014.3
20260831225825 95 360 5.2 10.4 0.00 0.00 0.00 44 1014.3
20260831225725 96 360 5.2 10.4 0.00 0.00 0.00 45 1014.3
20260831225629 96 360 6.1 10.4 0.00 0.00 0.00 45 1014.4
20260831225549 96 144 7.0 10.4 0.00 0.00 0.00 45 1014.4
20260831225429 96 360 7.0 10.4 0.00 0.00 0.00 44 1014.3
20260831225329 96 360 6.1 10.4 0.00 0.00 0.00 44 1014.3
20260831225229 96 360 5.2 10.4 0.00 0.00 0.00 44 1014.3
20260831225130 96 360 5.2 10.4 0.00 0.00 0.00 45 1014.3
20260831225030 96 360 6.1 10.4 0.00 0.00 0.00 44 1014.3
20260831224935 96 360 6.1 10.4 0.00 0.00 0.00 44 1014.4
20260831224836 96 360 6.1 10.4 0.00 0.00 0.00 44 1014.2
20260831224735 96 360 5.2 10.4 0.00 0.00 0.00 44 1014.3
20260831224635 96 360 5.2 9.6 0.00 0.00 0.00 44 1014.3
20260831224516 96 360 5.2 9.6 0.00 0.00 0.00 44 1014.3
20260831224416 96 360 5.2 11.3 0.00 0.00 0.00 46 1014.3
20260831224321 96 360 4.3 11.3 0.00 0.00 0.00 44 1014.3
20260831224220 96 360 4.3 11.3 0.00 0.00 0.00 44 1014.3
20260831224121 96 78 4.3 11.3 0.00 0.00 0.00 44 1014.3
20260831224022 96 360 4.3 11.3 0.00 0.00 0.00 44 1014.3
20260831223921 96 360 5.2 11.3 0.00 0.00 0.00 45 1014.3
20260831223821 96 360 5.2 11.3 0.00 0.00 0.00 45 1014.4
20260831223721 96 360 7.0 12.2 0.00 0.00 0.00 44 1014.4
20260831223627 96 108 7.8 12.2 0.00 0.00 0.00 43 1014.4
20260831223526 96 360 7.8 12.2 0.00 0.00 0.00 43 1014.4
20260831223427 97 360 6.1 13.0 0.00 0.00 0.00 43 1014.4
20260831223328 96 360 5.2 13.0 0.00 0.00 0.00 43 1014.5
20260831223229 97 360 6.1 13.0 0.00 0.00 0.00 44 1014.4
20260831223129 97 360 5.2 13.0 0.00 0.00 0.00 44 1014.4
20260831223030 97 360 5.2 13.0 0.00 0.00 0.00 43 1014.4
20260831222934 97 113 6.1 13.0 0.00 0.00 0.00 43 1014.5
20260831222835 97 360 6.1 13.0 0.00 0.00 0.00 43 1014.4
20260831222735 97 360 6.1 13.0 0.00 0.00 0.00 43 1014.5
20260831222635 97 150 7.0 12.2 0.00 0.00 0.00 42 1014.6
20260831222516 97 360 5.2 10.4 0.00 0.00 0.00 42 1014.5
20260831222417 97 360 6.1 10.4 0.00 0.00 0.00 42 1014.5
20260831222321 97 360 6.1 10.4 0.00 0.00 0.00 42 1014.5
20260831222223 97 360 6.1 10.4 0.00 0.00 0.00 41 1014.5
20260831222142 97 360 5.2 10.4 0.00 0.00 0.00 41 1014.5
20260831222022 97 159 5.2 10.4 0.00 0.00 0.00 41 1014.6
20260831221922 97 116 5.2 10.4 0.00 0.00 0.00 41 1014.6
20260831221822 97 360 6.1 10.4 0.00 0.00 0.00 40 1014.5
20260831221722 97 360 6.1 10.4 0.00 0.00 0.00 41 1014.5
20260831221643 97 360 5.2 10.4 0.00 0.00 0.00 41 1014.5
20260831221527 97 145 5.2 10.4 0.00 0.00 0.00 41 1014.5
20260831221426 97 360 4.3 10.4 0.00 0.00 0.00 41 1014.4
20260831221327 97 360 4.3 10.4 0.00 0.00 0.00 41 1014.5
20260831221227 97 360 4.3 10.4 0.00 0.00 0.00 41 1014.5
20260831221148 97 360 4.3 10.4 0.00 0.00 0.00 41 1014.5
20260831221027 97 360 4.3 10.4 0.00 0.00 0.00 42 1014.4
20260831220928 97 170 2.6 10.4 0.00 0.00 0.00 41 1014.4
20260831220830 97 360 2.6 11.3 0.00 0.00 0.00 41 1014.4
20260831220731 97 90 2.6 11.3 0.00 0.00 0.00 41 1014.5
20260831220651 97 360 2.6 11.3 0.00 0.00 0.00 43 1014.5
20260831220530 97 360 4.3 11.3 0.00 0.00 0.00 43 1014.5
20260831220430 97 360 6.1 11.3 0.00 0.00 0.00 42 1014.4
20260831220330 97 360 6.1 11.3 0.00 0.00 0.00 42 1014.5
20260831220250 97 142 6.1 11.3 0.00 0.00 0.00 42 1014.4
20260831220130 97 360 5.2 11.3 0.00 0.00 0.00 43 1014.5
20260831220034 97 360 5.2 11.3 0.00 0.00 0.00 43 1014.5
20260831215935 97 360 3.5 8.7 0.00 0.00 0.00 43 1014.5
20260831215816 97 360 4.3 8.7 0.00 0.00 0.00 42 1014.5
20260831215717 97 360 4.3 8.7 0.00 0.00 0.00 41 1014.4
20260831215617 97 360 1.7 8.7 0.00 0.00 0.00 41 1014.5
20260831215518 97 360 1.7 8.7 0.00 0.00 0.00 41 1014.5
20260831215422 97 360 1.7 8.7 0.00 0.00 0.00 42 1014.5
20260831215322 97 360 1.7 8.7 0.00 0.00 0.00 42 1014.5
20260831215223 97 360 2.6 11.3 0.00 0.00 0.00 43 1014.5
20260831215123 97 360 3.5 11.3 0.00 0.00 0.00 43 1014.6
20260831215023 97 360 3.5 11.3 0.00 0.00 0.00 43 1014.6
20260831214923 97 360 3.5 11.3 0.00 0.00 0.00 43 1014.7
20260831214824 96 360 3.5 11.3 0.00 0.00 0.00 43 1014.7
20260831214728 96 360 4.3 11.3 0.00 0.00 0.00 44 1014.7
20260831214629 96 360 6.1 11.3 0.00 0.00 0.00 44 1014.8
20260831214530 96 360 5.2 11.3 0.00 0.00 0.00 43 1014.9
20260831214431 96 360 4.3 11.3 0.00 0.00 0.00 44 1014.8
20260831214330 95 360 2.6 10.4 0.00 0.00 0.00 44 1014.8
20260831214231 95 360 2.6 10.4 0.00 0.00 0.00 44 1014.9
20260831214130 95 360 1.7 10.4 0.00 0.00 0.00 44 1014.8
20260831214035 95 360 2.6 10.4 0.00 0.00 0.00 44 1014.9
20260831213916 95 360 4.3 10.4 0.00 0.00 0.00 44 1014.9
20260831213816 95 360 6.1 11.3 0.00 0.00 0.00 44 1014.9
20260831213716 95 360 6.1 11.3 0.00 0.00 0.00 45 1014.9
20260831213617 95 171 4.3 11.3 0.00 0.00 0.00 46 1015.0
20260831213518 95 360 4.3 11.3 0.00 0.00 0.00 44 1014.9
20260831213440 95 360 4.3 11.3 0.00 0.00 0.00 44 1015.0
20260831213324 96 360 5.2 11.3 0.00 0.00 0.00 44 1015.0
20260831213223 96 360 6.1 11.3 0.00 0.00 0.00 43 1015.0
20260831213124 96 360 7.8 12.2 0.00 0.00 0.00 44 1015.0
20260831213025 96 360 7.0 12.2 0.00 0.00 0.00 44 1014.9
20260831212925 96 360 6.1 12.2 0.00 0.00 0.00 43 1015.0
20260831212824 96 360 6.1 12.2 0.00 0.00 0.00 43 1015.0
20260831212728 96 360 5.2 12.2 0.00 0.00 0.00 43 1015.1
20260831212627 96 360 6.1 12.2 0.00 0.00 0.00 43 1015.1
20260831212528 96 360 7.0 12.2 0.00 0.00 0.00 43 1015.1
20260831212428 96 360 6.1 12.2 0.00 0.00 0.00 44 1015.1
20260831212328 96 360 5.2 12.2 0.00 0.00 0.00 44 1015.1
20260831212229 96 360 3.5 13.0 0.00 0.00 0.00 44 1015.0
20260831212129 96 360 3.5 13.0 0.00 0.00 0.00 44 1015.1
20260831212054 96 360 3.5 13.0 0.00 0.00 0.00 44 1015.1
20260831211933 96 360 2.6 13.0 0.00 0.00 0.00 44 1015.1
20260831211854 96 360 2.6 13.0 0.00 0.00 0.00 44 1015.2
20260831211733 95 360 5.2 13.0 0.00 0.00 0.00 44 1015.1
20260831211653 95 360 7.8 13.0 0.00 0.00 0.00 44 1015.2
20260831211533 95 360 8.7 13.0 0.00 0.00 0.00 44 1015.2
20260831211453 95 360 7.8 13.0 0.00 0.00 0.00 45 1015.2
20260831211333 95 360 5.2 12.2 0.00 0.00 0.00 44 1015.2
20260831211217 95 360 3.5 14.8 0.00 0.00 0.00 44 1015.2
20260831211118 95 360 3.5 14.8 0.00 0.00 0.00 44 1015.2
20260831211018 95 360 4.3 14.8 0.00 0.00 0.00 43 1015.2
20260831210919 95 360 7.0 14.8 0.00 0.00 0.00 44 1015.3
20260831210818 95 360 8.7 14.8 0.00 0.00 0.00 43 1015.3
20260831210716 96 360 7.8 14.8 0.00 0.00 0.00 43 1015.3
20260831210638 96 360 8.7 14.8 0.00 0.00 0.00 43 1015.4
20260831210521 96 360 7.8 14.8 0.00 0.00 0.00 43 1015.4
20260831210422 96 360 6.1 13.9 0.00 0.00 0.00 44 1015.4
20260831210323 96 360 3.5 7.0 0.00 0.00 0.00 45 1015.4
20260831210223 96 360 3.5 7.0 0.00 0.00 0.00 44 1015.4
20260831210143 96 68 4.3 7.8 0.00 0.00 0.00 44 1015.2
20260831210023 96 360 4.3 10.4 0.00 0.00 0.00 45 1015.3
20260831205923 95 360 3.5 11.3 0.00 0.00 0.00 46 1015.3
20260831205845 95 360 1.7 11.3 0.00 0.00 0.00 46 1015.4
20260831205728 95 360 1.7 11.3 0.00 0.00 0.00 46 1015.4
20260831205649 94 360 3.5 11.3 0.00 0.00 0.00 46 1015.5
20260831205528 94 360 5.2 13.0 0.00 0.00 0.00 46 1015.4
20260831205426 94 360 7.0 13.0 0.00 0.00 0.00 46 1015.5
20260831205325 94 360 7.0 13.0 0.00 0.00 0.00 46 1015.5
20260831205226 95 360 7.0 13.0 0.00 0.00 0.00 46 1015.5
20260831205125 95 360 7.0 13.0 0.00 0.00 0.00 45 1015.5
20260831205025 95 360 7.0 13.0 0.00 0.00 0.00 46 1015.6
20260831204930 95 360 7.8 13.0 0.00 0.00 0.00 45 1015.6
20260831204830 96 360 9.6 13.0 0.00 0.00 0.00 45 1015.6
20260831204731 96 360 9.6 13.0 0.00 0.00 0.00 45 1015.6
20260831204630 96 360 7.8 12.2 0.00 0.00 0.00 45 1015.7
20260831204550 96 360 7.0 9.6 0.00 0.00 0.00 45 1015.6
20260831204449 96 360 5.2 9.6 0.00 0.00 0.00 46 1015.6
20260831204329 96 133 5.2 8.7 0.00 0.00 0.00 46 1015.8
20260831204230 96 360 6.1 8.7 0.00 0.00 0.00 46 1015.6
20260831204132 96 360 6.1 8.7 0.00 0.00 0.00 45 1015.7
20260831204032 96 360 5.2 9.6 0.00 0.00 0.00 45 1015.7
20260831203933 96 360 5.2 9.6 0.00 0.00 0.00 45 1015.7
20260831203832 96 360 4.3 9.6 0.00 0.00 0.00 45 1015.8
20260831203732 96 360 4.3 9.6 0.00 0.00 0.00 46 1015.8
20260831203653 96 360 1.7 11.3 0.00 0.00 0.00 45 1015.8
20260831203532 96 360 1.7 11.3 0.00 0.00 0.00 47 1015.8
20260831203431 96 360 2.6 11.3 0.00 0.00 0.00 46 1015.8
20260831203316 95 360 5.2 13.0 0.00 0.00 0.00 45 1015.9
20260831203216 95 360 6.1 13.0 0.00 0.00 0.00 45 1015.9
20260831203117 96 360 5.2 13.0 0.00 0.00 0.00 44 1015.9
20260831203017 95 360 6.1 13.0 0.00 0.00 0.00 45 1015.9
20260831202917 96 144 7.8 13.0 0.00 0.00 0.00 45 1015.9
20260831202818 95 360 8.7 13.0 0.00 0.00 0.00 45 1016.0
20260831202722 96 360 7.8 13.0 0.00 0.00 0.00 45 1016.1
20260831202623 95 360 7.8 13.0 0.00 0.00 0.00 45 1016.1
20260831202524 96 360 6.1 13.0 0.00 0.00 0.00 46 1016.1
20260831202425 96 360 4.3 12.2 0.00 0.00 0.00 46 1016.1
20260831202324 96 360 4.3 12.2 0.00 0.00 0.00 47 1016.1
20260831202225 96 360 5.2 12.2 0.00 0.00 0.00 47 1016.1
20260831202145 95 126 7.0 12.2 0.00 0.00 0.00 46 1016.1
20260831202029 96 360 6.1 12.2 0.00 0.00 0.00 46 1016.2
20260831201929 96 360 5.2 12.2 0.00 0.00 0.00 46 1016.3
20260831201830 96 360 2.6 9.6 0.00 0.00 0.00 45 1016.2
20260831201750 95 360 2.6 8.7 0.00 0.00 0.00 45 1016.2
20260831201629 95 360 1.7 10.4 0.00 0.00 0.00 46 1016.2
20260831201531 95 360 1.7 10.4 0.00 0.00 0.00 47 1016.2
20260831201430 94 360 2.6 10.4 0.00 0.00 0.00 46 1016.2
20260831201335 94 360 3.5 11.3 0.00 0.00 0.00 46 1016.3
20260831201235 94 360 4.3 11.3 0.00 0.00 0.00 47 1016.5
20260831201116 94 360 5.2 11.3 0.00 0.00 0.00 47 1016.4
20260831201035 94 360 6.1 11.3 0.00 0.00 0.00 47 1016.4
20260831200916 94 360 6.1 11.3 0.00 0.00 0.00 47 1016.5
20260831200817 95 360 7.0 11.3 0.00 0.00 0.00 47 1016.5
20260831200722 95 360 6.1 11.3 0.00 0.00 0.00 47 1016.5
20260831200622 96 360 4.3 12.2 0.00 0.00 0.00 46 1016.5
20260831200521 96 360 1.7 12.2 0.00 0.00 0.00 47 1016.5
20260831200422 96 360 0.9 12.2 0.00 0.00 0.00 47 1016.5
20260831200322 96 360 2.6 12.2 0.00 0.00 0.00 47 1016.5
20260831200223 95 360 3.5 12.2 0.00 0.00 0.00 49 1016.5
20260831200123 95 171 4.3 12.2 0.00 0.00 0.00 49 1016.7
20260831200023 95 360 5.2 12.2 0.00 0.00 0.00 48 1016.6
20260831195927 95 360 7.0 12.2 0.00 0.00 0.00 49 1016.6
20260831195828 95 360 7.8 12.2 0.00 0.00 0.00 48 1016.5
20260831195728 95 360 7.0 12.2 0.00 0.00 0.00 48 1016.6
20260831195628 95 360 7.0 11.3 0.00 0.00 0.00 48 1016.6
20260831195529 95 360 7.0 11.3 0.00 0.00 0.00 48 1016.6
20260831195429 95 360 4.3 13.0 0.00 0.00 0.00 48 1016.6
20260831195334 95 360 3.5 13.0 0.00 0.00 0.00 49 1016.6
20260831195234 95 360 3.5 13.0 0.00 0.00 0.00 49 1016.6
20260831195135 95 360 4.3 13.0 0.00 0.00 0.00 48 1016.6
20260831195035 95 360 4.3 13.0 0.00 0.00 0.00 48 1016.7
20260831194936 95 360 5.2 13.0 0.00 0.00 0.00 48 1016.7
20260831194816 95 360 7.0 13.0 0.00 0.00 0.00 48 1016.8
20260831194721 95 360 7.8 13.0 0.00 0.00 0.00 48 1016.8
20260831194623 95 360 7.8 13.0 0.00 0.00 0.00 47 1016.8
20260831194543 95 360 7.0 13.0 0.00 0.00 0.00 48 1016.8
20260831194423 95 360 5.2 16.5 0.00 0.00 0.00 48 1016.7
20260831194343 95 360 5.2 16.5 0.00 0.00 0.00 48 1016.8
20260831194224 94 360 4.3 16.5 0.00 0.00 0.00 48 1016.8
20260831194123 94 360 5.2 16.5 0.00 0.00 0.00 50 1016.9
20260831194044 94 95 5.2 16.5 0.00 0.00 0.00 50 1016.8
20260831193944 94 360 7.8 16.5 0.00 0.00 0.00 49 1016.9
20260831193827 94 360 8.7 16.5 0.00 0.00 0.00 49 1016.8
20260831193728 94 360 8.7 16.5 0.00 0.00 0.00 48 1016.8
20260831193629 94 360 7.8 16.5 0.00 0.00 0.00 49 1016.9
20260831193529 94 360 7.0 16.5 0.00 0.00 0.00 48 1017.0
20260831193431 94 360 7.0 13.0 0.00 0.00 0.00 47 1016.9
20260831193331 95 360 7.0 13.0 0.00 0.00 0.00 47 1016.9
20260831193217 95 360 6.1 13.0 0.00 0.00 0.00 47 1017.0
20260831193116 95 360 3.5 12.2 0.00 0.00 0.00 48 1016.9
20260831193017 95 360 4.3 13.0 0.00 0.00 0.00 48 1016.9
20260831192938 95 360 4.3 13.0 0.00 0.00 0.00 49 1017.0
20260831192819 95 360 4.3 13.0 0.00 0.00 0.00 49 1016.9
20260831192717 95 360 4.3 13.0 0.00 0.00 0.00 49 1017.0
20260831192618 95 179 3.5 13.0 0.00 0.00 0.00 49 1017.0
20260831192523 95 360 4.3 13.0 0.00 0.00 0.00 49 1016.9
20260831192324 94 360 7.8 13.0 0.00 0.00 0.00 49 1017.0
20260831192224 94 360 7.8 13.0 0.00 0.00 0.00 49 1017.0
20260831192125 94 360 7.8 18.2 0.00 0.00 0.00 50 1017.1
20260831192046 94 360 7.8 18.2 0.00 0.00 0.00 49 1017.1
20260831191925 94 360 7.0 18.2 0.00 0.00 0.00 50 1017.0
20260831191829 94 360 7.0 18.2 0.00 0.00 0.00 50 1017.1
20260831191728 94 360 7.0 18.2 0.00 0.00 0.00 51 1017.1
20260831191629 93 360 6.1 18.2 0.00 0.00 0.00 51 1017.1
20260831191530 93 360 8.7 18.2 0.00 0.00 0.00 50 1017.1
20260831191430 94 360 8.7 18.2 0.00 0.00 0.00 49 1017.1
20260831191351 94 360 9.6 18.2 0.00 0.00 0.00 50 1017.1
20260831191230 94 360 7.0 17.4 0.00 0.00 0.00 50 1017.1
20260831191136 94 360 6.1 17.4 0.00 0.00 0.00 50 1017.1
20260831191056 94 360 4.3 17.4 0.00 0.00 0.00 51 1017.1
20260831190934 94 360 3.5 17.4 0.00 0.00 0.00 51 1017.2
20260831190835 94 360 2.6 17.4 0.00 0.00 0.00 52 1017.2
20260831190735 93 360 5.2 17.4 0.00 0.00 0.00 52 1017.2
20260831190634 93 360 8.7 17.4 0.00 0.00 0.00 52 1017.3
20260831190534 93 360 11.3 17.4 0.00 0.00 0.00 51 1017.3
20260831190435 94 360 9.6 17.4 0.00 0.00 0.00 52 1017.3
20260831190339 94 360 6.1 11.3 0.00 0.00 0.00 52 1017.2
20260831190219 94 360 4.3 9.6 0.00 0.00 0.00 52 1017.3
20260831190119 94 360 5.2 9.6 0.00 0.00 0.00 53 1017.4
20260831190040 93 360 5.2 9.6 0.00 0.00 0.00 53 1017.4
20260831185919 93 360 5.2 9.6 0.00 0.00 0.00 52 1017.3
20260831185841 94 360 4.3 9.6 0.00 0.00 0.00 53 1017.4
20260831185719 93 360 3.5 8.7 0.00 0.00 0.00 53 1017.3
20260831185639 93 360 3.5 8.7 0.00 0.00 0.00 54 1017.4
20260831185523 93 360 3.5 8.7 0.00 0.00 0.00 53 1017.4
20260831185423 93 360 3.5 8.7 0.00 0.00 0.00 53 1017.3
20260831185324 93 360 3.5 11.3 0.00 0.00 0.00 53 1017.4
20260831185223 93 360 4.3 16.5 0.00 0.00 0.00 52 1017.4
20260831185144 94 360 5.2 16.5 0.00 0.00 0.00 52 1017.4
20260831185022 94 360 4.3 16.5 0.00 0.00 0.00 51 1017.4
20260831184922 94 360 3.5 16.5 0.00 0.00 0.00 51 1017.4
20260831184828 94 360 2.6 16.5 0.00 0.00 0.00 52 1017.5
20260831184748 93 360 3.5 16.5 0.00 0.00 0.00 52 1017.5
20260831184628 93 360 7.0 16.5 0.00 0.00 0.00 53 1017.6
20260831184529 93 360 10.4 16.5 0.00 0.00 0.00 52 1017.6